GFSSE_sfc_30mbdewp_000.txt.gz
Dewpoint
62 65 68 69 69 70 70 70 71 71 70 69 68 69 69 67 66 64 61 59 57 59 62 61 61 62 65 65 64 64 65 66 66 67 68 65 64 65 66 67 67 68 69
61 63 66 67 69 69 70 68 70 70 69 69 68 69 68 67 65 63 60 62 60 62 62 61 64 65 65 66 66 64 64 65 66 66 67 67 67 67 67 67 67 68 69
59 63 65 66 67 69 69 69 69 70 69 69 68 68 68 67 65 64 63 63 60 61 60 61 64 64 65 64 62 64 64 63 64 66 67 67 66 67 67 65 65 68 68
61 64 65 66 67 68 68 68 68 68 68 69 68 68 68 66 66 66 63 61 60 60 61 63 62 61 63 59 56 56 63 64 63 64 66 67 66 65 66 65 65 67 67
63 65 64 64 66 68 67 67 67 67 67 69 69 68 68 67 66 65 62 62 61 61 62 63 64 62 62 60 56 53 62 62 63 64 65 65 64 65 66 64 67 65 66
64 65 64 64 65 67 67 67 67 67 66 67 68 68 67 66 65 65 62 62 62 63 63 63 63 64 62 59 55 63 63 61 62 63 65 65 64 65 66 65 65 66 66
64 65 65 64 64 64 65 66 66 67 67 67 67 67 66 65 64 62 62 62 64 63 64 64 65 63 63 62 62 63 64 63 64 65 65 64 61 66 66 65 65 66 65
63 65 65 64 63 63 63 63 64 65 66 67 66 66 66 66 65 65 64 64 63 62 61 61 61 61 59 59 62 62 61 62 64 65 65 64 63 64 66 65 64 64 65
64 64 64 64 62 61 61 61 62 63 65 66 65 65 64 64 64 64 63 63 62 63 64 64 62 61 62 63 62 62 64 64 64 64 64 62 61 62 65 67 66 65 65
65 64 63 63 62 59 58 59 61 61 64 66 65 63 62 62 62 61 61 61 61 60 60 60 60 61 62 61 62 62 62 62 62 61 61 61 62 63 65 65 66 67 65
62 65 64 63 62 60 58 59 61 61 62 64 65 63 62 61 60 60 59 59 60 59 58 57 57 58 58 57 58 59 59 60 60 59 59 61 61 62 64 63 65 66 66
57 59 61 62 62 61 59 61 60 61 61 62 63 64 62 60 59 58 59 59 58 58 58 58 57 56 55 54 54 54 57 59 58 57 56 57 61 61 61 63 64 63 65
49 52 55 57 59 58 59 61 62 61 61 61 60 60 59 58 58 59 58 59 57 57 57 57 55 54 53 53 54 54 54 55 56 58 57 58 60 60 60 63 63 64 64
44 48 55 56 57 56 58 61 61 60 61 60 59 58 58 57 56 58 57 58 57 56 56 56 56 55 52 51 52 52 53 53 54 55 56 55 57 60 60 60 62 62 63
41 46 52 54 56 55 52 50 51 52 55 54 54 53 57 56 56 57 57 56 55 56 56 55 55 56 55 55 55 55 55 55 56 56 56 56 57 59 59 59 60 60 62
39 44 51 52 54 55 52 50 47 47 47 48 50 51 54 55 53 55 56 56 54 52 51 50 49 48 49 51 53 55 56 57 57 57 57 56 56 56 57 57 58 59 61
38 41 45 48 50 49 52 51 48 45 44 46 48 50 51 48 44 46 47 51 50 50 51 50 47 48 45 48 45 46 49 52 50 50 54 56 57 57 57 57 58 58 58
34 39 40 43 47 46 50 50 49 46 43 44 48 47 47 47 45 44 44 43 40 42 47 36 36 37 37 38 39 38 41 46 41 39 44 49 56 58 58 58 58 58 58
35 35 32 39 41 40 41 44 41 42 39 40 47 48 46 45 44 42 45 42 38 39 38 36 36 37 34 34 34 36 35 35 33 38 37 40 47 57 59 58 58 58 59
32 33 30 27 29 35 37 36 35 36 37 38 43 47 46 43 41 38 42 42 38 38 38 38 35 37 36 35 35 33 35 33 35 34 35 41 46 53 56 58 58 58 58
29 29 30 30 30 32 32 32 32 30 33 35 37 45 45 43 40 36 36 41 41 37 37 37 35 35 34 36 34 34 34 34 34 32 37 38 42 47 51 54 57 57 58
28 28 29 29 30 31 31 32 31 30 31 32 33 36 41 43 39 36 35 37 39 38 36 37 37 36 36 37 34 35 31 32 33 34 35 35 37 39 42 41 45 51 54
29 29 29 29 30 31 32 32 32 34 34 33 33 34 36 40 39 36 35 36 35 35 33 34 34 34 33 35 36 35 32 31 35 35 36 36 36 38 39 40 42 47 52
31 32 31 32 32 32 33 33 31 30 29 30 30 31 34 38 38 38 37 36 36 37 36 37 37 36 36 32 34 37 36 37 33 30 34 35 36 37 38 39 41 43 49
32 34 34 34 34 34 36 36 34 32 32 32 32 31 31 34 37 38 37 37 38 37 33 30 29 26 29 27 27 29 30 32 33 31 27 26 31 35 38 36 37 39 40
36 36 37 37 37 37 38 37 37 35 34 33 33 33 34 35 36 37 36 35 33 30 29 27 27 26 25 25 27 28 29 28 27 29 28 27 26 27 30 31 29 31 34

GFSSE_sfc_30mbdewp_003.txt.gz
Dewpoint
61 66 68 69 70 70 71 71 70 69 70 70 69 68 67 66 65 64 63 62 62 64 62 62 63 64 65 64 64 62 63 64 66 67 66 66 64 65 66 67 66 67 68
61 66 68 68 70 70 70 71 70 69 69 69 69 68 67 65 63 62 64 63 62 62 61 63 63 64 66 66 65 64 63 63 64 66 68 67 65 66 66 66 66 67 68
62 65 66 67 69 69 69 70 70 70 69 68 69 68 67 65 64 63 65 62 61 61 60 64 64 65 66 64 62 63 64 63 64 65 67 66 66 66 66 67 66 67 67
63 64 65 67 68 68 68 68 69 69 69 69 68 68 67 66 66 66 63 62 60 59 61 60 61 64 64 64 62 61 62 63 63 65 66 66 66 65 64 66 66 66 66
63 63 65 67 67 67 67 67 67 68 69 69 68 68 67 66 66 65 63 60 60 60 60 61 61 60 61 61 60 61 61 61 60 63 64 66 66 66 64 65 66 66 67
62 63 63 66 66 66 66 66 66 66 67 68 68 67 66 65 64 64 62 61 61 61 60 61 62 64 63 62 62 63 62 63 64 63 64 65 65 65 65 66 66 67 66
63 64 63 63 64 65 65 65 66 66 66 67 67 67 66 65 64 61 62 62 62 63 62 63 64 63 63 62 62 61 62 61 62 63 64 64 64 64 65 66 65 66 65
61 63 63 63 62 62 64 64 65 66 66 66 66 66 66 64 64 63 62 62 63 62 61 61 61 61 60 58 59 61 62 60 62 64 64 64 65 64 64 65 65 66 66
63 63 63 62 62 62 61 62 64 65 66 65 64 64 65 64 64 63 62 62 61 62 63 62 62 61 60 63 61 62 62 63 62 63 63 63 63 63 63 64 64 65 66
63 62 62 61 61 60 61 62 62 64 65 65 63 62 61 62 62 61 60 60 59 59 57 57 59 59 59 59 59 59 60 62 61 61 61 61 62 63 62 64 65 64 65
64 62 62 62 61 59 58 60 61 62 64 65 64 62 61 60 59 58 58 59 59 59 58 58 57 57 55 53 54 55 56 59 59 59 58 58 61 63 63 63 64 64 64
62 63 63 63 62 60 58 60 60 60 62 64 64 62 60 58 58 57 57 57 58 57 57 57 57 56 54 53 54 54 54 55 57 58 59 59 60 61 62 63 63 63 63
61 62 63 63 62 61 60 60 60 60 60 61 61 62 60 58 58 58 57 58 56 56 55 55 54 53 50 50 52 52 53 53 54 55 56 57 57 58 61 61 62 63 62
54 54 56 58 58 57 59 60 60 60 60 60 59 59 57 56 56 57 57 58 58 56 55 55 55 55 54 54 54 54 55 55 56 56 56 57 58 58 57 59 61 62 62
46 49 54 56 57 54 56 55 57 58 60 59 58 57 57 56 55 56 56 57 56 56 56 55 53 53 53 53 54 54 54 55 57 57 57 58 58 58 59 58 60 61 62
43 45 51 54 56 53 50 49 50 51 54 53 53 53 56 56 55 55 56 55 55 53 52 49 47 46 45 48 49 49 51 52 54 53 52 52 52 54 56 59 58 57 58
40 43 49 51 54 53 52 50 48 47 47 48 50 51 54 54 50 52 54 54 53 49 49 48 42 45 40 43 41 41 41 44 50 45 44 47 49 52 56 57 59 59 58
38 41 46 48 49 48 51 51 50 48 46 45 48 49 50 48 44 43 44 47 46 41 48 42 35 36 37 36 37 36 37 40 38 36 39 41 45 49 54 58 58 58 59
35 39 38 44 46 45 47 48 47 45 44 42 46 48 47 47 45 44 43 42 41 39 39 36 36 37 34 34 34 35 34 35 34 36 34 35 39 46 53 58 59 59 59
36 34 32 38 39 39 38 38 36 36 38 40 39 44 47 46 45 42 43 44 42 38 38 38 36 37 36 35 34 34 34 35 35 34 34 37 39 43 47 49 55 57 58
32 31 27 27 28 33 33 33 33 32 32 35 36 37 43 46 44 41 39 41 42 38 37 38 37 35 35 36 35 33 34 35 33 34 35 35 37 39 40 43 45 47 52
29 29 29 29 29 30 31 31 31 31 31 32 33 35 39 44 44 42 38 38 41 40 38 38 37 36 36 37 33 34 28 29 33 34 36 36 36 39 40 41 41 44 47
27 28 28 28 29 30 32 32 32 33 33 32 32 33 34 40 44 43 39 36 38 41 38 37 37 36 32 36 36 31 28 27 31 34 27 35 35 33 39 39 39 43 44
30 31 31 31 32 32 33 33 32 31 31 31 32 32 32 36 37 41 40 37 36 38 37 35 36 35 33 30 33 35 33 31 21 19 29 25 28 31 33 38 39 38 42
32 32 36 37 37 37 37 37 37 36 36 36 35 35 34 33 36 39 40 38 37 38 37 37 35 31 27 26 23 26 28 30 31 26 20 19 26 28 31 34 36 38 36
38 37 37 37 37 37 36 37 37 36 36 37 37 36 36 36 36 37 38 38 36 32 29 27 26 25 26 26 28 30 26 21 21 24 26 24 27 29 30 33 33 34 35

GFSSE_sfc_30mbdewp_006.txt.gz
Dewpoint
60 66 68 69 70 70 69 70 69 70 70 70 69 68 67 67 67 66 66 66 66 64 63 63 63 64 65 64 64 63 63 66 65 64 64 65 64 65 66 66 66 67 68
61 66 68 69 70 70 70 69 69 70 70 69 69 68 67 66 65 66 64 63 62 62 60 63 64 64 66 66 64 63 63 64 66 67 65 65 65 65 66 66 66 66 66
63 65 67 68 69 69 70 69 69 69 69 69 68 67 66 64 64 65 64 63 61 60 60 62 63 65 66 66 64 64 63 64 64 65 67 66 66 66 66 66 67 67 67
63 64 66 67 68 68 69 70 69 69 69 69 68 68 67 66 66 65 64 63 60 60 60 61 60 64 65 64 64 64 64 64 64 65 66 65 65 66 65 67 67 67 67
62 64 66 67 66 67 67 67 68 69 69 69 68 68 67 66 66 66 63 60 60 61 60 61 62 62 62 61 62 63 62 63 64 63 64 66 66 66 64 65 66 67 67
61 62 66 65 65 65 65 65 65 67 67 67 67 67 66 65 64 64 62 61 62 62 61 62 62 63 64 63 62 62 63 62 62 62 62 64 66 65 66 65 64 66 67
61 62 64 64 65 65 65 65 65 66 67 67 67 67 66 65 64 60 60 62 62 63 62 62 62 62 63 62 60 61 62 62 60 62 62 63 64 64 65 65 64 64 66
61 62 62 63 63 64 65 64 65 65 65 65 66 66 65 64 64 63 63 63 62 63 63 63 63 61 61 60 62 61 61 61 63 62 63 63 63 61 64 65 64 63 65
62 62 62 62 62 62 62 63 64 65 65 64 64 65 64 64 63 62 62 61 60 60 59 60 60 61 62 61 60 59 60 62 61 61 61 62 63 62 62 64 64 63 64
62 62 61 61 60 60 61 61 62 64 65 64 63 62 61 62 62 60 58 60 59 59 59 58 58 58 57 56 56 56 56 58 59 59 59 59 60 61 63 63 64 64 64
62 61 61 60 60 58 58 60 61 62 64 64 63 62 61 59 58 57 58 58 59 58 57 57 57 57 55 54 55 55 54 55 56 57 58 59 60 60 62 63 63 64 64
61 62 61 61 60 59 57 59 60 61 62 64 64 62 60 58 57 57 57 57 57 57 56 57 55 54 50 50 51 53 53 54 54 54 55 57 57 58 60 62 62 63 63
61 62 62 62 62 61 59 59 59 59 60 61 63 62 60 59 57 57 56 56 55 56 54 55 54 54 53 52 53 54 54 54 55 56 56 58 59 58 58 59 60 62 62
59 61 62 62 62 61 60 60 59 59 59 60 59 60 59 57 55 56 56 56 57 56 55 55 55 55 54 54 53 53 53 53 55 56 56 57 57 57 58 59 59 59 62
56 58 57 58 58 56 58 59 59 60 60 60 59 58 57 56 55 55 56 56 57 55 55 54 52 49 48 48 50 51 51 52 52 52 51 50 50 48 48 52 58 59 59
51 52 54 55 57 54 52 53 54 56 57 58 57 57 56 56 55 54 55 55 55 54 54 50 46 44 43 45 46 44 43 44 49 47 43 42 45 47 49 50 51 56 60
47 46 51 53 55 53 51 49 48 49 50 52 53 52 52 54 55 54 54 55 54 53 49 48 46 43 40 40 38 39 39 40 46 41 37 39 41 43 49 53 54 54 56
42 43 49 51 52 52 51 51 50 48 47 46 47 49 50 52 52 49 49 50 52 50 48 48 38 35 36 36 36 35 36 36 36 34 36 36 39 43 48 54 54 56 55
39 41 46 46 48 47 48 50 50 49 48 46 45 47 48 49 49 45 44 44 46 44 41 44 37 36 35 34 34 34 35 34 35 35 34 36 36 40 45 47 49 53 51
35 40 40 42 45 44 41 40 39 38 38 41 41 42 46 47 47 46 44 43 43 41 39 38 36 37 36 34 35 34 35 35 35 34 33 34 38 39 40 42 45 43 45
36 35 33 34 35 35 34 33 33 32 33 34 36 38 40 44 46 46 45 43 44 42 40 38 37 36 35 37 35 33 33 35 34 34 33 37 34 39 36 41 40 41 44
32 31 29 28 29 30 32 32 32 32 32 32 33 34 36 38 42 45 45 42 42 43 40 38 37 36 36 36 32 33 25 27 30 34 36 28 37 34 34 35 35 38 43
28 29 29 29 29 30 32 33 32 33 33 33 33 33 33 35 37 42 44 43 41 42 40 39 38 36 34 37 36 28 28 24 30 30 27 28 27 30 33 31 36 35 36
30 31 33 34 35 36 36 36 36 35 35 35 36 35 36 36 36 38 43 44 41 40 40 40 39 38 35 34 35 37 32 29 17 17 25 29 25 25 28 33 33 34 37
35 37 37 37 37 37 37 37 36 34 36 38 38 38 38 38 37 37 38 40 41 39 39 38 37 36 31 30 25 28 28 31 31 22 18 20 23 27 30 31 32 35 31
37 37 38 37 37 37 38 35 33 33 33 34 34 35 37 38 37 36 38 39 38 36 32 31 32 30 29 31 31 30 28 23 21 23 25 23 22 25 28 28 32 31 32

GFSSE_sfc_30mbdewp_009.txt.gz
Dewpoint
61 66 68 69 69 70 70 69 69 68 68 69 68 68 68 67 67 67 65 64 64 63 62 62 63 64 65 65 64 63 64 66 64 64 65 65 65 66 67 68 68 65 67
62 66 68 69 70 69 69 68 67 68 68 68 68 67 67 66 67 65 64 63 63 62 61 61 62 64 65 66 65 64 64 65 66 66 65 65 64 65 66 67 66 66 68
63 66 67 68 69 69 69 68 68 69 69 68 68 67 66 65 65 66 64 64 62 61 60 61 61 64 66 66 66 65 65 65 65 65 66 61 60 66 66 66 67 67 68
62 64 66 67 68 69 70 69 69 69 69 68 68 67 66 66 66 65 65 62 61 61 60 61 62 62 63 63 63 63 63 63 64 64 61 61 62 66 66 66 67 67 67
61 64 66 66 67 67 68 69 70 70 69 69 68 68 67 66 66 65 63 61 61 62 61 62 62 63 64 64 62 63 64 63 62 61 62 62 62 64 64 66 66 67 67
59 63 65 65 66 66 66 66 67 67 67 67 68 67 66 65 64 63 63 62 62 63 63 63 64 64 64 63 61 61 62 62 60 60 60 62 62 64 66 66 65 65 66
59 62 63 64 64 65 65 65 65 65 66 67 67 66 66 65 63 61 60 62 63 63 63 63 63 62 61 60 61 60 60 62 60 58 59 61 62 62 63 63 65 65 64
58 60 62 64 64 64 64 64 64 65 65 65 65 66 65 65 64 63 63 62 62 61 61 62 62 63 63 63 62 62 62 63 62 62 62 62 63 63 62 63 63 64 64
60 60 61 61 61 63 63 63 63 64 64 63 63 64 63 64 63 62 61 61 60 60 59 60 60 60 59 58 58 56 59 60 61 60 60 60 61 62 62 62 62 62 62
61 60 61 61 60 60 61 61 62 63 64 63 62 61 61 61 61 60 57 59 59 59 59 58 58 58 57 57 57 56 55 55 57 58 59 59 60 61 62 63 63 64 63
61 61 61 61 60 59 59 60 61 62 64 64 62 61 60 59 59 57 57 58 59 57 57 57 57 56 54 53 55 55 53 52 53 53 54 57 58 59 60 62 62 63 64
60 61 61 62 61 60 57 60 61 61 62 63 63 62 61 60 58 58 57 57 58 57 56 56 56 54 50 50 52 54 53 55 54 54 54 59 59 59 59 59 60 62 63
60 61 61 62 63 61 59 59 60 60 61 61 63 63 61 60 60 59 58 57 57 57 56 55 55 55 56 55 55 54 53 53 53 54 55 57 56 57 58 59 59 60 62
60 62 63 63 63 63 62 61 60 60 60 60 61 62 62 60 59 58 57 57 58 58 57 56 56 56 55 55 53 51 50 50 48 50 48 51 49 47 48 52 56 59 60
59 60 63 63 63 61 60 60 61 61 61 61 61 61 60 59 58 57 56 57 57 57 57 56 55 50 47 45 47 46 44 45 47 42 40 45 48 47 48 49 51 54 58
57 58 60 59 59 58 57 59 59 60 60 60 60 60 60 59 58 57 56 56 56 56 56 56 51 46 44 44 45 44 42 42 44 43 36 38 44 48 52 52 53 54 55
54 54 55 56 57 57 55 53 52 53 54 57 58 59 58 57 56 56 55 55 55 56 56 53 49 47 44 42 42 42 41 41 42 40 37 36 37 43 50 51 53 54 50
48 50 52 53 54 56 54 54 52 51 50 50 50 51 53 53 54 54 53 53 53 55 54 51 49 44 38 39 38 37 37 37 38 38 37 38 36 38 41 47 47 45 46
45 47 49 52 52 52 51 51 53 52 51 50 49 48 49 51 52 52 51 50 51 50 51 50 47 44 37 37 36 37 37 36 37 35 36 37 39 40 39 43 45 43 43
42 45 47 47 49 49 47 46 43 43 42 43 43 44 46 46 50 50 50 50 49 46 46 45 44 42 38 37 34 33 37 37 37 37 35 32 37 38 38 39 37 35 42
39 42 42 42 44 42 39 37 36 36 36 37 37 39 40 41 44 47 47 47 48 46 45 44 43 42 39 40 38 36 36 38 38 36 35 36 33 38 38 37 30 29 29
38 38 34 33 34 34 34 35 36 36 36 37 38 40 40 40 40 41 44 44 44 45 46 46 44 41 39 40 35 35 31 32 34 36 34 34 37 33 31 28 28 29 28
33 33 33 34 36 38 39 37 38 38 38 36 35 36 37 40 40 40 41 42 43 44 43 45 45 42 39 39 39 34 31 29 29 33 35 30 34 29 28 26 28 26 30
36 40 39 39 39 39 40 38 37 35 34 35 36 36 38 39 40 40 40 41 42 43 43 43 43 43 41 38 39 38 37 33 29 27 29 29 28 26 27 29 27 27 29
39 40 40 39 39 40 39 37 36 36 36 36 36 35 35 37 39 39 39 40 41 41 42 42 43 42 40 39 37 37 33 30 30 23 23 24 25 27 28 28 27 30 27
40 41 41 39 39 40 40 36 37 37 37 37 36 35 34 35 36 37 37 39 39 39 38 38 36 37 36 36 35 33 30 26 24 25 25 26 29 28 26 25 27 27 28

GFSSE_sfc_30mbdewp_015.txt.gz
Dewpoint
58 64 69 69 69 69 68 67 67 68 69 69 68 69 68 68 67 66 65 64 63 63 63 63 62 64 65 67 66 66 65 66 66 65 64 63 64 66 67 67 66 64 67
59 63 69 70 70 69 68 67 68 68 69 68 68 68 67 66 65 64 64 63 63 63 62 63 62 66 67 66 66 65 65 65 66 66 65 63 62 64 66 66 66 64 65
59 62 65 70 70 69 68 68 69 68 68 68 67 66 67 66 65 65 64 63 62 62 62 62 63 65 65 64 63 63 64 63 64 64 64 55 59 64 65 66 66 66 65
58 60 65 69 70 69 69 70 69 68 67 67 66 66 66 66 66 64 62 62 62 63 63 63 63 65 64 63 62 62 63 62 62 62 58 57 58 63 65 66 66 66 66
55 59 65 67 69 69 69 70 69 69 68 68 68 67 66 66 65 63 62 63 63 63 63 63 64 65 65 64 62 61 62 62 62 60 56 58 57 63 63 65 65 65 66
49 56 65 66 66 67 67 67 68 67 67 68 67 67 66 65 62 61 62 63 63 63 63 63 62 61 61 61 61 61 60 61 61 54 55 59 58 63 62 63 64 64 65
46 50 58 64 64 65 64 65 65 66 66 66 66 66 65 63 63 63 63 63 62 61 62 62 63 63 63 63 62 62 63 62 57 55 57 58 63 64 63 63 64 64 65
48 49 52 61 64 64 63 64 64 64 64 65 66 65 64 63 63 62 62 61 61 60 60 61 61 61 60 59 58 57 59 59 58 55 57 59 62 62 63 63 63 63 63
47 49 50 53 59 62 62 63 63 63 63 63 63 63 63 62 61 60 60 60 60 60 59 59 59 59 58 58 57 55 54 55 56 52 53 58 61 61 61 63 63 63 63
48 51 52 52 52 54 59 61 62 63 63 62 61 60 60 61 60 58 58 59 59 58 58 57 57 56 56 56 55 54 53 53 54 49 50 58 59 60 60 61 63 62 61
49 53 52 53 52 52 50 57 58 60 61 61 61 60 59 56 55 55 56 56 57 57 57 56 55 53 53 54 54 51 51 49 48 45 49 58 59 59 60 60 61 62 62
50 51 53 56 54 53 48 52 53 52 53 55 56 57 54 56 56 55 56 57 57 57 56 56 55 54 53 46 49 53 49 45 45 41 49 56 55 56 58 59 60 61 61
49 48 51 60 58 54 51 48 48 49 51 52 56 57 55 56 55 53 52 52 52 55 50 52 51 49 49 49 46 45 43 43 39 40 48 46 48 49 51 53 56 58 60
45 47 51 58 60 57 51 47 48 48 50 50 53 55 53 52 52 51 49 48 46 45 46 47 47 47 50 48 43 43 41 40 34 36 43 39 44 47 48 50 52 54 58
44 47 50 55 61 56 54 49 51 51 50 53 52 51 52 51 50 49 48 47 45 44 44 44 44 45 45 44 42 40 39 38 39 39 36 38 42 50 51 51 52 54 56
45 47 49 54 60 55 49 50 51 51 50 50 47 48 51 51 51 49 47 45 44 43 43 44 45 46 45 42 41 40 40 38 36 37 37 39 41 49 51 51 54 54 54
45 46 50 55 59 54 49 48 47 45 45 44 44 47 48 49 48 49 47 46 45 45 46 45 44 44 44 43 41 38 38 40 39 38 38 35 39 43 49 51 50 49 49
43 43 47 54 57 53 46 46 44 43 44 44 44 45 47 48 48 48 46 46 46 47 46 45 43 43 43 42 41 39 38 36 36 37 38 37 34 36 44 47 46 47 48
40 41 45 54 54 50 46 45 46 46 46 43 43 41 41 43 43 46 45 45 48 47 47 46 45 44 43 43 41 40 38 37 37 35 36 37 38 36 36 46 45 44 43
40 46 48 53 51 48 45 45 41 41 40 40 39 39 42 43 44 44 44 44 45 43 43 44 47 46 46 45 42 39 41 38 37 38 36 36 36 38 37 39 40 37 39
46 47 48 48 45 41 38 37 36 37 37 38 39 41 42 41 41 40 39 39 41 39 41 44 45 44 45 46 45 45 44 43 41 39 39 38 36 36 38 38 37 35 36
41 41 40 39 39 38 37 38 41 41 40 40 41 40 38 38 38 37 37 37 36 37 40 42 43 43 44 44 44 43 42 40 41 41 40 40 40 37 36 38 38 36 33
41 39 39 39 40 41 40 38 38 38 37 37 37 38 37 39 37 36 35 35 37 39 38 40 40 40 40 41 42 41 39 37 38 39 41 41 40 40 38 36 38 34 33
42 41 40 40 39 40 41 39 40 38 38 38 38 38 38 36 33 32 32 35 38 40 41 41 37 42 41 40 40 38 41 42 41 40 40 40 40 39 40 39 35 33 33
42 42 41 40 40 41 41 41 40 39 39 38 37 36 35 32 33 32 32 35 37 39 39 40 40 40 40 40 39 40 41 41 41 40 41 40 40 39 38 40 36 33 33
41 43 42 40 39 40 41 41 39 39 38 36 35 34 33 34 32 32 32 36 39 39 39 39 43 41 40 40 39 39 38 38 37 37 36 38 38 41 41 39 36 35 35

GFSSE_sfc_30mbdewp_018.txt.gz
Dewpoint
63 66 69 69 70 69 68 69 69 70 70 70 69 69 68 67 66 65 65 64 64 63 63 64 63 66 67 66 66 66 66 66 66 67 66 64 62 65 66 67 65 64 65
64 67 70 70 70 69 69 69 70 69 69 69 69 68 67 66 65 65 64 63 63 63 63 64 64 65 65 64 64 64 64 64 64 64 65 64 62 65 65 66 65 62 64
63 65 68 70 69 69 69 70 69 69 68 68 68 68 66 66 66 64 63 63 63 63 63 63 64 65 64 64 63 63 63 64 63 63 63 62 59 64 65 65 66 66 66
63 65 68 70 70 70 70 70 69 68 67 67 67 66 66 66 65 64 63 63 63 64 64 64 65 65 65 64 63 62 62 63 62 62 60 58 61 63 64 65 65 66 66
62 66 68 69 69 70 70 70 69 69 69 68 68 67 66 65 63 62 63 63 64 63 63 63 62 62 62 62 62 62 61 61 62 60 58 58 62 64 63 63 64 65 65
60 64 66 67 67 68 68 68 68 68 68 68 67 66 65 63 62 63 64 64 63 62 62 63 63 63 63 63 63 63 63 62 61 57 55 59 61 61 63 62 63 64 64
56 61 63 64 65 65 65 65 66 66 66 66 66 65 64 63 63 63 62 62 61 61 61 62 63 62 61 60 59 59 59 59 60 59 57 62 62 63 62 64 63 63 64
52 56 58 63 64 64 64 64 64 64 65 66 66 65 64 63 62 62 61 61 60 60 59 60 60 60 60 58 58 57 56 55 55 56 58 62 62 62 62 63 64 63 63
48 50 56 59 60 61 62 63 63 63 63 63 63 63 63 61 61 60 60 60 59 59 58 58 57 57 57 57 57 55 54 54 55 55 55 60 61 61 61 62 63 63 63
49 51 54 57 59 60 61 61 62 62 62 61 61 60 61 61 61 58 59 58 58 57 57 56 56 55 55 55 56 55 51 52 51 53 58 60 60 60 61 61 62 63 63
49 52 52 52 52 56 59 60 61 61 61 61 61 59 59 60 60 59 56 56 56 56 56 56 55 53 53 53 54 55 54 51 51 45 57 58 58 59 60 60 61 61 62
50 52 54 54 54 52 47 57 60 59 60 60 60 59 59 57 57 55 56 57 57 57 57 57 56 55 55 52 53 53 54 51 46 46 56 55 54 54 56 58 59 60 61
48 50 56 58 56 54 52 48 53 54 54 57 60 57 58 56 58 56 57 59 59 58 58 56 56 56 54 52 51 49 48 45 44 42 50 49 48 49 51 53 54 56 59
48 48 57 59 59 56 55 52 52 54 52 55 55 56 55 55 55 53 53 50 50 48 49 50 48 51 50 52 49 46 44 44 42 42 46 45 43 45 47 49 52 54 56
45 48 51 59 61 58 54 53 53 53 56 54 54 54 55 54 54 54 52 51 50 49 48 48 48 48 49 48 48 46 43 43 43 41 44 41 40 43 48 49 50 53 55
45 48 53 58 61 56 51 52 53 54 55 55 51 50 52 53 54 53 52 51 50 49 50 48 47 48 49 48 47 46 43 42 42 42 42 42 42 45 50 50 51 53 55
46 46 54 57 60 55 50 50 50 49 45 47 49 49 49 50 51 52 51 50 51 51 50 50 49 48 48 48 46 46 45 43 43 42 42 43 41 47 48 50 53 52 51
43 45 49 54 60 56 52 49 47 49 48 46 47 48 48 49 50 50 51 51 51 52 51 50 50 49 47 47 46 46 44 42 42 44 43 42 42 42 48 50 51 49 49
41 42 43 56 56 55 50 47 48 48 48 48 45 44 46 45 48 48 48 49 50 49 49 49 48 48 48 48 47 45 45 45 42 40 41 41 41 40 44 48 49 49 50
46 45 48 55 54 51 48 47 45 44 44 44 43 45 46 45 46 45 45 47 49 46 46 46 47 48 47 48 47 46 46 46 45 44 41 42 42 42 40 45 48 46 47
48 49 50 47 45 43 41 40 42 43 43 43 43 45 43 44 43 43 42 43 42 42 43 44 44 44 44 46 46 45 45 47 47 45 44 42 41 41 42 43 44 41 41
42 42 41 42 42 42 42 41 43 43 42 42 43 43 43 43 42 41 42 41 41 41 41 43 44 44 43 44 44 43 41 42 43 43 44 42 41 41 41 41 42 42 40
42 41 41 41 42 43 44 41 42 42 41 41 42 41 42 42 40 39 39 39 40 41 41 42 41 42 42 43 43 43 40 38 40 41 41 43 45 45 44 42 41 41 40
43 43 41 41 41 42 43 43 43 43 42 42 42 41 41 39 40 38 37 38 40 41 41 42 42 43 43 42 43 42 41 42 40 39 41 43 44 45 45 44 42 42 40
44 44 43 42 40 42 43 43 42 42 42 41 41 41 39 39 38 37 36 38 39 40 41 43 45 42 41 40 39 39 38 37 38 37 37 38 39 44 46 47 46 47 46
43 44 43 41 40 41 40 41 41 42 41 41 40 39 37 36 36 36 37 38 39 43 43 43 42 41 39 38 38 37 36 36 35 35 34 35 36 39 40 43 46 45 46

GFSSE_sfc_30mbdewp_021.txt.gz
Dewpoint
66 69 70 69 69 69 69 70 70 70 70 70 69 68 67 66 66 66 65 65 64 64 64 64 66 66 66 65 65 65 65 64 64 64 65 65 63 65 67 65 66 65 67
69 70 70 69 69 69 70 70 70 70 69 68 68 67 67 67 65 64 64 64 64 64 64 64 65 65 64 64 63 63 64 64 64 63 64 63 62 64 64 65 62 66 67
67 69 70 69 70 70 70 70 69 69 68 68 67 68 67 66 64 64 64 64 64 64 64 64 65 65 64 64 64 63 63 63 63 63 63 59 62 63 63 62 65 65 66
68 69 69 69 70 70 70 69 68 68 68 68 67 67 66 65 64 63 64 64 64 63 63 63 63 62 63 62 62 62 62 62 61 61 59 59 60 64 62 63 63 66 67
68 69 69 70 70 70 69 69 69 69 68 68 68 67 65 63 63 63 64 64 63 63 62 62 62 62 63 63 63 63 63 62 62 60 57 59 64 59 55 57 63 63 64
66 67 68 68 68 69 68 68 68 68 68 67 67 65 63 63 63 64 63 62 62 61 62 63 63 63 62 61 60 60 60 59 59 58 58 61 62 60 60 62 61 62 64
63 65 65 66 66 67 66 66 66 66 66 66 65 65 63 63 63 63 62 61 61 60 60 60 60 61 60 59 59 58 56 56 57 55 58 62 63 62 63 62 61 62 63
60 62 63 64 64 64 64 64 64 65 65 65 65 64 63 62 62 62 61 60 60 59 59 58 58 58 58 57 57 56 54 54 54 53 59 62 63 63 63 62 62 62 63
57 57 61 62 62 62 62 62 62 62 63 63 62 62 61 61 61 61 60 59 58 57 56 56 55 54 55 55 56 55 55 55 53 51 58 61 62 62 62 63 63 63 62
53 56 56 59 60 61 61 61 61 61 61 60 60 61 60 60 59 59 59 58 57 55 55 55 54 54 55 54 54 53 54 56 50 51 58 60 61 61 61 61 61 62 63
51 54 57 57 58 59 59 60 60 60 60 59 60 60 60 60 59 58 59 57 57 56 56 56 54 54 55 54 53 53 53 54 52 48 57 58 58 58 59 60 61 61 62
51 54 55 54 58 59 57 59 60 61 61 60 60 61 60 59 60 59 57 57 57 57 57 57 57 56 57 55 53 53 53 52 46 45 55 57 55 54 54 56 58 59 60
51 54 55 53 53 54 54 57 59 60 60 60 60 57 55 58 57 55 58 58 57 58 57 57 57 57 55 55 51 50 48 45 43 43 50 53 51 50 50 52 54 55 57
51 55 57 56 54 55 53 53 54 55 56 56 57 55 54 55 52 53 50 49 51 51 54 52 51 49 50 50 52 50 46 43 43 43 46 48 45 45 45 47 50 53 54
50 56 58 58 56 55 53 54 53 56 53 54 55 54 53 55 52 52 53 51 51 50 49 48 47 47 47 47 47 47 47 44 43 43 43 46 44 44 45 46 48 50 53
48 56 60 62 60 57 54 53 53 55 53 55 52 52 53 52 53 53 51 52 50 51 51 50 49 49 49 49 49 48 46 44 42 42 43 43 46 44 46 47 48 50 52
48 58 61 58 55 58 55 50 51 52 46 50 49 50 51 50 50 50 51 51 51 53 51 50 50 50 49 48 48 48 48 46 44 42 41 43 43 45 45 48 49 50 53
53 56 58 60 54 60 55 49 49 48 47 46 49 51 50 50 50 49 48 48 50 50 49 49 49 49 49 49 48 48 47 47 45 44 43 42 43 43 46 47 48 53 52
46 53 57 61 60 57 51 49 49 48 46 47 45 46 46 48 46 44 44 44 46 46 45 47 46 47 45 45 46 46 46 46 46 45 44 44 43 43 43 46 48 52 52
51 50 49 52 52 51 48 46 46 46 45 45 45 45 44 44 43 42 41 43 41 41 41 42 42 43 44 44 43 43 46 47 47 47 46 44 42 43 43 43 48 49 50
44 43 43 43 42 43 42 41 42 41 42 42 44 43 44 43 42 41 43 42 42 41 42 42 43 42 40 43 40 41 43 44 45 46 48 46 45 43 42 43 45 46 47
42 42 42 42 42 42 43 43 44 43 44 44 43 44 43 41 40 38 38 39 40 41 41 42 41 39 40 43 42 42 40 40 41 41 43 44 45 46 45 43 45 45 42
41 41 41 42 42 43 43 43 43 43 43 42 41 42 41 40 38 38 37 38 40 40 40 40 40 42 43 43 42 41 39 39 37 40 41 42 43 47 47 49 45 44 43
43 43 42 42 42 43 43 42 42 42 40 42 42 41 39 38 37 37 37 38 38 39 40 43 44 42 41 39 40 39 39 38 33 32 38 37 38 41 42 46 48 49 47
43 43 42 42 43 43 43 43 42 42 42 42 40 38 37 36 37 36 36 40 42 42 42 42 41 40 40 39 38 37 36 35 37 34 32 34 34 37 40 41 44 46 49
43 43 43 42 41 43 43 43 42 41 40 38 37 35 35 36 36 36 40 40 42 40 40 40 40 38 38 38 37 36 36 34 33 33 32 32 33 34 34 38 41 44 46

GFSSE_sfc_30mbdewp_024.txt.gz
Dewpoint
67 70 69 69 69 70 70 70 70 70 70 69 67 67 67 66 65 66 65 66 65 64 65 66 65 65 64 64 63 63 64 65 64 64 64 64 64 62 64 65 65 67 67
69 69 69 69 70 70 70 70 70 70 69 67 67 67 66 65 65 65 65 65 64 64 64 65 65 64 64 64 64 63 63 63 63 63 64 62 62 62 62 63 61 67 66
69 69 69 70 70 70 70 70 70 69 68 67 67 67 65 65 64 64 64 64 63 63 63 63 63 63 63 62 62 62 62 62 62 62 61 58 64 64 62 62 63 63 67
69 69 69 70 70 69 69 69 69 68 67 67 67 66 65 64 63 63 64 64 63 62 61 61 61 62 62 63 63 63 63 63 62 62 57 57 62 63 61 62 63 64 66
68 69 70 70 69 69 69 69 69 68 68 68 67 65 63 63 63 64 63 62 61 61 61 61 62 62 62 61 61 60 60 60 60 58 58 62 63 60 62 60 62 62 63
68 69 69 69 69 69 69 68 68 68 68 67 66 64 63 63 63 62 62 61 60 60 60 60 61 61 60 60 59 59 58 58 57 54 56 63 61 58 58 57 61 62 62
66 67 67 67 68 68 67 67 67 67 67 65 65 64 63 62 62 62 61 60 59 59 59 58 58 58 58 58 58 58 58 58 55 52 60 62 61 63 63 62 62 61 61
64 65 65 65 65 66 65 65 65 65 64 64 64 64 62 62 62 61 60 59 58 56 56 55 54 55 55 55 55 55 56 57 56 50 54 62 63 63 62 61 62 61 62
61 62 63 63 63 63 62 62 62 63 64 63 63 62 61 61 61 60 59 58 57 56 55 54 53 54 54 55 54 52 54 55 53 50 60 61 62 62 62 62 62 62 63
58 60 60 61 61 60 60 60 61 61 61 61 61 60 60 60 60 60 59 58 57 56 55 54 54 54 54 54 54 54 54 54 51 51 58 60 62 61 61 62 62 62 63
54 56 58 58 58 59 60 61 61 60 60 60 60 60 60 60 59 59 59 57 58 57 56 56 56 56 56 55 55 54 55 52 51 46 53 57 60 59 59 60 61 61 61
53 54 55 56 57 58 58 60 59 60 60 60 60 60 59 59 60 58 59 59 59 58 57 58 58 59 58 56 54 53 51 50 48 44 47 56 58 55 54 55 58 59 60
53 55 56 57 58 57 56 58 59 60 60 60 60 60 60 59 60 60 58 58 58 57 57 56 56 55 55 54 53 52 51 48 44 43 45 52 53 52 49 49 52 54 56
53 54 54 56 58 56 55 57 58 58 59 59 60 57 55 53 53 53 52 51 51 50 52 51 52 49 49 49 50 49 50 47 45 43 44 48 49 50 47 46 47 49 52
53 54 55 55 55 53 54 55 55 56 58 58 56 55 54 53 52 52 53 51 51 51 51 50 49 49 49 49 49 48 48 47 46 44 44 45 48 48 47 46 46 47 49
54 58 59 58 57 56 53 53 54 55 54 56 54 53 53 54 52 53 51 51 50 52 51 50 49 49 49 50 49 49 49 48 47 45 43 43 46 48 47 47 47 47 48
57 60 57 58 57 58 54 52 53 53 53 53 51 53 53 52 51 51 50 48 49 49 47 47 47 47 46 46 46 46 47 48 48 47 45 43 43 48 48 47 48 48 48
59 59 60 57 55 56 58 52 50 47 47 49 50 51 51 51 49 47 45 44 46 44 43 44 43 43 43 44 44 44 45 46 46 46 46 45 44 43 46 49 49 49 50
58 59 60 57 55 57 55 50 50 49 47 47 47 47 48 46 45 43 43 44 43 42 42 43 42 43 42 41 40 40 42 45 46 46 46 46 45 45 44 44 49 49 49
55 58 58 57 57 56 48 46 46 44 45 46 45 44 43 43 41 41 41 41 42 41 41 42 42 42 41 39 40 41 42 44 45 45 45 47 47 45 44 43 43 49 49
44 45 45 44 44 44 45 43 42 42 43 44 44 43 41 39 39 38 38 39 40 39 40 41 42 39 38 42 42 41 42 42 42 42 42 44 44 47 47 47 45 45 46
43 43 42 42 42 42 43 43 43 43 43 43 43 40 39 38 38 36 38 38 39 39 39 40 40 41 41 43 41 41 38 38 40 35 39 38 42 43 41 43 46 47 46
42 42 41 41 42 42 42 42 43 43 42 42 41 39 38 38 37 37 38 40 41 42 42 43 43 41 41 41 40 38 35 33 34 35 33 37 37 39 40 41 42 46 50
42 42 42 42 43 43 42 42 41 41 40 41 39 37 36 38 37 37 40 41 41 42 41 42 42 41 40 39 39 37 37 37 32 30 33 32 35 34 37 38 40 44 47
42 42 42 42 43 43 43 43 42 41 40 40 37 36 35 36 36 39 38 41 41 40 40 40 38 38 39 37 37 36 35 35 35 33 29 31 32 34 36 35 39 43 46
43 43 42 41 42 43 43 42 40 39 38 36 35 34 35 36 37 36 37 41 40 39 39 39 39 38 37 37 37 36 35 34 32 31 31 30 29 31 32 35 38 39 43

GFSSE_sfc_30mbdewp_030.txt.gz
Dewpoint
67 69 70 70 70 70 70 70 69 69 68 67 67 66 66 66 66 66 66 65 64 63 64 63 63 62 62 62 62 63 63 63 62 62 62 62 63 63 65 66 66 66 66
68 69 70 70 70 70 70 70 69 68 67 66 66 65 65 65 65 64 64 63 63 61 60 60 61 61 61 62 62 62 62 61 62 63 61 62 64 63 63 63 64 66 66
68 69 70 70 70 70 69 69 69 67 67 66 65 65 65 64 63 64 63 61 60 59 59 59 59 59 58 58 58 58 58 59 60 60 61 58 62 63 61 62 64 65 66
68 69 69 70 70 69 69 69 67 67 67 66 65 65 63 63 63 62 62 61 59 58 58 57 57 57 57 57 57 56 56 57 57 56 55 58 59 63 62 60 61 63 64
68 69 69 70 69 69 69 68 68 67 67 66 65 63 63 63 61 61 61 60 59 57 56 56 56 56 56 56 56 56 57 57 55 51 57 59 63 62 63 59 56 62 62
68 69 69 69 69 69 68 68 68 68 67 66 64 63 62 61 60 60 60 59 57 56 55 55 55 55 55 55 56 57 56 57 53 51 54 60 62 63 60 62 61 61 61
66 68 68 68 68 68 68 68 68 67 66 65 64 64 62 61 60 60 59 58 57 55 55 55 56 56 56 56 57 57 56 56 51 50 57 60 61 63 63 62 61 61 61
65 67 67 68 68 68 68 68 67 65 64 64 64 64 62 61 61 59 58 57 56 55 55 56 56 56 57 58 58 58 57 56 49 47 53 58 61 62 59 61 62 62 62
66 66 66 67 67 67 66 65 65 64 63 63 63 62 62 61 60 59 58 58 56 56 56 57 57 58 58 58 58 57 57 55 49 47 49 54 59 60 59 59 60 61 62
64 64 64 64 64 64 64 63 63 62 62 62 62 61 60 60 59 59 58 58 58 58 58 59 59 59 59 58 57 57 57 52 49 47 44 48 55 56 57 59 58 59 59
60 61 61 61 61 60 61 62 62 62 61 61 60 60 59 58 58 58 59 60 60 60 60 60 59 59 58 55 54 55 53 51 50 48 44 46 52 54 56 56 57 57 57
56 57 59 59 59 58 59 60 60 61 60 60 60 60 59 59 59 59 59 59 59 57 55 56 55 54 51 51 51 51 50 50 50 49 46 47 51 53 52 52 55 55 55
53 55 57 58 57 57 57 58 58 59 59 59 59 59 59 59 59 59 58 55 52 52 51 50 50 49 49 49 48 48 47 47 48 48 48 50 51 52 52 51 52 52 53
51 53 55 57 56 56 56 57 57 58 59 59 59 60 59 57 54 54 51 51 51 51 50 49 49 48 46 46 45 44 44 45 46 47 47 48 50 52 52 52 51 52 53
49 52 54 56 56 56 56 57 56 57 58 58 59 58 56 53 52 52 51 50 49 48 47 46 44 43 43 43 42 41 42 43 43 43 46 47 48 50 51 52 52 51 51
50 52 55 55 57 57 55 56 56 57 58 58 57 55 54 53 52 50 47 45 44 44 44 43 42 43 42 42 39 40 40 40 41 43 45 46 48 49 49 50 51 52 53
51 54 56 57 57 55 53 53 55 54 55 55 52 51 51 49 45 43 42 42 42 41 40 41 40 41 39 40 38 39 40 40 42 44 45 46 47 47 48 50 50 51 51
54 57 59 58 57 55 53 53 51 50 51 49 47 45 43 42 41 40 39 38 39 38 39 38 38 38 38 39 39 39 40 41 43 45 42 45 46 44 43 43 43 45 48
58 58 57 58 55 54 51 49 47 46 44 42 41 40 39 39 39 38 38 39 39 39 40 41 40 41 40 41 41 42 39 40 43 39 38 42 43 41 40 39 39 39 42
58 58 58 55 54 51 50 47 45 43 41 40 39 39 38 38 38 39 40 40 40 40 41 42 41 41 41 41 41 38 38 40 39 36 35 37 39 40 39 38 37 38 39
54 56 56 51 50 50 47 43 42 40 39 38 38 39 37 38 39 38 39 38 38 37 39 41 41 40 40 40 38 34 36 39 35 34 32 34 37 37 36 36 37 35 40
51 52 52 49 50 46 44 43 42 40 39 38 38 38 37 38 39 39 38 37 37 34 36 40 39 37 38 39 37 36 31 31 33 32 34 32 34 35 34 35 35 35 40
46 43 43 43 42 42 43 43 42 42 41 38 37 36 37 38 38 38 37 35 36 38 38 39 38 36 36 37 36 35 31 29 31 31 30 33 32 33 34 34 34 35 40
41 41 41 42 42 42 42 42 41 40 40 39 36 36 36 37 37 37 37 37 37 39 37 38 38 37 36 33 35 37 36 35 30 27 31 31 31 30 33 33 33 34 39
41 42 42 43 43 43 42 42 41 40 39 38 37 35 35 36 37 36 36 38 38 38 38 37 37 37 36 35 35 35 35 32 32 31 28 30 33 33 33 33 33 33 36
42 42 42 43 43 43 43 42 40 38 37 36 36 35 34 35 36 35 36 38 38 38 37 37 37 37 36 35 34 34 34 32 31 32 29 29 29 30 32 33 33 32 33

GFSSE_sfc_30mbdewp_033.txt.gz
Dewpoint
66 68 69 68 70 70 70 70 69 69 68 68 67 67 67 66 66 66 65 65 63 62 61 61 61 61 62 62 62 61 61 61 62 63 62 64 64 63 64 65 65 63 66
67 68 69 69 70 70 70 69 69 68 68 66 66 66 66 65 64 64 63 62 60 59 59 60 59 57 58 58 58 58 59 60 60 61 62 59 64 63 62 64 65 63 65
67 68 67 69 70 70 69 69 69 67 66 66 65 65 64 63 64 63 61 61 59 58 57 57 56 56 56 56 56 55 56 57 57 58 59 58 59 64 62 62 64 65 65
67 68 67 69 70 69 69 69 68 67 66 65 65 64 63 63 62 61 61 61 58 56 55 55 54 54 55 56 56 56 57 58 56 55 58 60 61 63 63 60 58 62 63
67 67 68 69 69 69 69 68 68 67 67 66 64 63 63 61 60 60 60 60 57 55 55 55 55 53 54 56 57 57 57 58 54 55 58 61 61 62 62 63 60 61 62
67 68 69 69 69 69 69 68 68 67 67 65 64 63 61 60 59 60 59 58 56 56 56 56 56 56 57 58 58 58 58 56 50 52 57 61 61 63 62 63 62 61 61
67 68 68 68 69 69 68 67 68 67 66 65 64 63 61 59 59 59 58 57 56 56 57 57 57 58 59 59 59 58 57 54 48 47 48 51 59 61 60 60 62 62 62
66 67 67 68 68 68 68 68 67 65 64 64 64 63 62 61 60 58 58 57 57 57 58 58 59 59 60 60 59 58 57 54 47 44 44 46 56 58 58 59 62 61 61
65 66 66 66 67 68 68 67 65 64 64 64 63 63 61 60 60 59 59 59 59 59 60 60 60 60 60 59 58 57 57 54 50 48 45 43 52 53 54 57 60 60 60
65 65 65 66 65 65 65 65 63 63 62 62 62 61 60 59 59 60 58 60 61 61 60 60 59 59 56 55 56 55 53 51 50 49 47 45 52 52 51 54 56 57 58
64 64 64 64 64 63 62 62 62 62 61 61 61 59 59 58 59 58 59 60 60 58 58 58 57 54 52 51 52 52 51 50 50 49 49 50 53 52 52 54 56 57 57
60 60 61 61 60 60 59 61 61 60 59 60 60 60 59 60 60 59 59 58 56 54 54 54 53 50 48 47 45 45 44 46 46 46 46 53 53 54 54 53 55 55 55
56 57 58 59 59 58 57 59 59 59 59 60 60 60 60 60 60 60 57 53 53 53 50 49 48 46 46 44 43 42 41 40 41 41 41 50 50 50 52 54 54 54 56
52 54 56 58 58 58 57 58 58 58 59 60 60 61 60 59 56 54 53 52 50 48 47 45 44 45 44 43 41 40 40 37 35 35 37 48 50 50 51 52 53 54 54
50 53 55 57 57 57 57 58 58 58 59 60 60 58 56 54 54 52 49 46 45 45 44 43 43 42 41 40 39 38 37 37 38 39 41 47 50 50 52 53 53 54 54
50 52 56 57 58 57 57 57 58 59 60 60 58 57 56 54 51 47 45 43 41 41 41 39 39 39 37 37 35 37 38 39 40 43 42 43 47 46 46 48 49 50 51
50 55 57 58 57 55 56 55 54 55 56 55 54 53 50 47 45 43 42 40 39 40 40 39 38 38 37 38 39 39 40 39 40 43 39 40 40 39 42 42 42 43 44
54 57 58 57 55 55 54 53 53 52 51 50 49 46 44 44 43 41 39 39 41 41 40 39 39 35 37 39 36 37 36 35 41 40 37 38 37 35 35 39 39 39 40
57 58 58 57 56 56 54 53 50 47 46 43 41 41 42 41 42 40 40 40 40 38 38 36 34 37 36 35 30 34 30 28 41 35 34 34 36 36 35 35 36 36 37
58 58 57 57 55 54 54 50 46 43 42 42 41 40 40 40 41 40 39 38 35 34 35 36 36 36 38 36 31 30 29 33 37 35 32 32 34 35 35 34 34 32 34
58 56 56 55 55 54 51 45 42 42 41 40 39 39 40 40 40 39 36 36 35 33 36 37 34 33 30 35 30 27 30 40 35 33 30 30 32 33 32 33 31 31 31
56 55 56 56 53 50 45 44 43 41 40 39 39 39 39 40 39 37 36 35 36 32 35 36 35 29 31 36 30 28 22 22 31 28 32 29 32 29 29 31 31 32 32
55 55 53 51 49 47 45 44 42 41 40 38 38 37 38 39 38 38 37 36 36 35 32 35 35 32 27 30 33 28 22 20 26 26 25 29 28 29 31 32 32 32 32
46 47 48 46 45 45 45 44 43 42 41 40 39 38 37 39 38 37 37 38 38 37 34 33 34 33 33 27 29 31 32 30 24 20 23 24 30 29 29 31 31 33 33
43 44 44 44 44 44 44 44 43 42 41 39 39 39 39 38 39 38 37 38 38 36 35 36 37 37 35 32 28 28 29 27 26 26 22 23 24 25 29 27 30 32 34
43 44 45 44 44 44 44 44 43 42 40 39 39 38 38 37 37 38 37 38 38 38 38 38 38 38 36 35 32 31 29 26 24 25 22 23 22 23 24 26 27 26 32

GFSSE_sfc_30mbdewp_036.txt.gz
Dewpoint
63 65 69 68 70 70 69 69 69 69 68 67 67 67 67 67 66 65 64 63 61 60 61 61 59 58 58 58 58 58 59 60 61 62 63 63 64 63 63 64 63 59 66
64 66 68 69 69 69 69 69 69 68 68 67 67 66 66 65 64 63 62 61 59 58 57 56 55 54 54 55 55 56 57 58 59 60 60 61 65 64 62 63 65 62 65
65 65 66 69 69 69 69 69 68 67 66 66 66 65 64 64 62 61 61 60 58 57 56 54 53 53 55 56 57 57 58 58 58 58 59 54 58 63 61 61 61 62 62
65 64 64 68 69 69 69 69 68 67 66 65 64 63 63 61 61 60 60 60 57 56 55 53 53 55 56 58 58 58 58 57 56 56 54 56 56 63 63 62 62 62 62
64 64 66 69 69 69 69 68 68 67 67 66 64 62 61 60 60 60 59 59 57 56 56 54 55 57 58 59 58 58 57 54 53 52 53 58 57 61 62 61 59 60 62
64 64 68 69 69 69 69 68 68 67 67 65 64 62 60 59 58 59 59 59 57 57 57 57 58 59 60 60 59 58 55 51 49 44 47 54 56 61 60 61 62 61 62
63 65 67 67 68 68 68 68 67 66 65 65 64 62 60 58 58 58 58 58 58 58 58 58 59 60 60 60 59 59 56 53 40 39 41 45 48 55 56 60 61 61 59
65 65 67 68 68 68 68 68 66 65 65 65 64 63 61 60 59 58 58 59 59 59 59 60 60 60 60 59 58 57 55 52 43 41 38 38 54 53 53 56 61 61 59
65 65 64 65 66 68 67 66 65 64 64 64 63 62 61 60 60 60 60 60 60 60 61 60 60 59 57 57 56 54 53 51 46 44 43 43 55 54 53 53 56 58 58
65 62 59 60 60 61 62 65 63 63 63 63 62 61 60 59 60 58 59 61 61 60 60 59 56 55 54 52 52 52 51 51 44 43 42 49 55 56 55 54 55 56 57
63 59 58 58 58 57 56 60 62 62 62 61 60 60 58 55 56 56 60 60 58 58 57 55 53 50 50 48 45 45 45 42 42 41 40 51 52 53 55 56 56 57 58
58 59 60 59 58 57 54 56 56 55 56 57 57 58 57 58 58 57 57 56 55 54 52 51 49 47 44 41 41 41 40 41 39 38 38 48 50 51 52 53 54 55 57
53 53 54 57 57 54 53 54 54 57 58 59 60 59 60 60 60 58 54 52 53 51 49 48 45 44 45 43 42 41 41 39 37 36 39 48 49 50 51 52 53 55 55
50 51 52 54 56 56 54 54 56 56 58 59 60 61 60 59 57 55 52 51 50 48 47 45 44 45 44 43 41 41 40 39 38 37 40 48 50 50 51 53 54 54 54
48 51 53 54 54 55 56 56 57 58 59 60 61 61 58 56 55 53 51 48 47 45 44 43 42 42 41 40 39 39 38 38 39 38 37 47 48 47 47 49 49 49 50
49 52 55 55 56 55 57 59 59 60 60 61 61 60 58 56 54 51 48 45 43 42 42 41 42 40 39 38 36 38 38 37 35 37 35 36 43 42 42 44 44 44 45
50 54 56 58 58 58 57 57 58 57 58 59 58 57 56 53 51 48 45 42 42 42 42 40 38 35 35 33 31 29 32 30 30 36 35 35 35 40 37 40 40 40 40
50 55 58 58 57 57 58 57 56 54 54 55 54 52 50 47 46 43 43 42 43 40 36 32 31 31 28 30 27 24 28 25 23 35 33 34 34 33 32 36 35 37 36
51 57 58 58 57 57 57 55 55 53 49 47 46 45 44 44 44 43 42 40 37 33 33 31 28 30 29 30 26 23 25 24 23 30 33 32 32 33 32 32 32 33 33
54 58 58 59 58 56 55 56 49 46 44 43 42 42 42 43 43 41 37 36 32 30 29 31 31 30 28 31 26 24 26 27 29 31 30 27 26 29 30 30 30 28 31
58 58 58 57 57 56 55 52 47 43 42 42 41 42 42 42 39 35 32 33 32 31 32 31 27 26 26 30 27 22 21 26 32 29 27 26 27 29 28 28 29 30 29
56 57 58 57 59 56 54 49 45 44 42 42 41 42 42 38 36 33 33 31 32 28 31 32 33 30 25 28 30 25 18 18 19 26 26 27 26 28 28 28 30 30 31
57 57 57 57 56 52 46 46 45 44 42 40 40 40 40 38 35 34 33 33 33 33 29 32 32 31 29 27 28 27 23 18 22 22 22 23 25 27 27 26 27 28 29
55 56 53 51 49 47 46 43 42 40 40 41 41 41 36 38 36 33 34 35 35 34 34 32 30 34 32 28 28 26 27 27 23 22 22 21 21 21 22 23 24 25 26
51 51 48 47 46 45 45 45 44 43 43 42 41 38 36 36 38 36 35 35 35 34 35 36 35 34 32 31 30 26 25 25 24 23 22 19 18 20 19 21 22 22 23
44 45 45 44 43 44 45 45 45 43 41 38 35 33 30 32 33 34 35 37 37 38 38 37 36 35 34 34 32 28 26 24 22 22 23 22 18 17 18 18 19 21 20

GFSSE_sfc_30mbdewp_039.txt.gz
Dewpoint
62 64 69 70 70 70 69 69 69 69 68 67 67 67 67 66 65 64 63 62 61 59 57 56 54 53 53 54 56 57 59 60 61 62 62 64 64 63 62 62 62 61 65
63 64 69 70 70 69 69 69 68 68 67 67 67 66 65 65 63 63 62 60 57 56 55 54 53 55 56 57 58 59 59 59 59 59 62 64 63 62 63 61 64 62 64
63 63 65 69 69 69 69 68 68 67 67 66 65 64 64 62 61 61 61 60 57 55 54 53 56 57 57 58 58 58 58 58 58 58 59 61 61 63 62 63 63 62 63
63 63 65 69 69 69 69 68 67 66 66 65 64 63 61 61 60 59 59 59 57 56 53 56 56 57 58 58 57 57 56 54 54 56 53 54 59 62 61 61 61 60 60
63 63 67 68 69 69 69 68 68 67 66 64 63 61 60 59 59 58 59 60 58 56 56 57 57 58 59 59 59 57 55 53 51 50 50 53 55 60 61 61 58 58 60
64 66 68 68 68 68 68 68 67 67 66 65 63 60 59 58 58 59 60 60 58 58 58 58 59 59 60 59 59 57 53 52 51 38 42 49 49 55 57 61 61 60 60
65 67 66 67 68 68 68 67 67 66 65 65 63 61 59 58 58 59 59 59 59 58 59 59 59 59 59 58 57 55 51 51 44 39 36 47 52 54 53 56 60 60 58
66 65 66 67 68 68 68 67 66 65 65 64 63 61 59 59 59 59 59 59 60 60 60 60 60 58 58 57 56 54 52 50 44 43 41 47 57 56 55 55 58 59 58
65 65 64 65 67 67 67 65 64 64 64 64 63 62 61 61 61 61 61 61 61 61 61 60 58 56 55 54 52 50 51 51 47 41 40 48 55 56 56 57 56 57 58
64 63 62 62 62 63 63 64 63 63 63 63 61 60 59 58 58 59 60 61 60 60 59 57 55 53 51 47 44 43 45 47 42 40 41 49 52 53 54 55 57 57 57
60 55 55 55 56 55 56 61 62 62 62 61 60 59 57 53 55 57 59 58 58 58 56 53 50 47 49 47 42 41 43 42 41 38 38 49 48 50 52 54 55 56 57
54 54 56 56 55 53 50 55 54 56 56 56 56 57 57 55 57 56 55 55 54 53 51 48 46 46 47 44 43 43 43 43 40 39 41 48 48 47 49 53 55 56 56
53 54 54 56 56 52 53 52 52 55 57 58 58 57 59 56 57 56 54 52 52 52 50 48 47 46 47 46 44 44 43 42 40 40 46 49 48 48 49 52 53 54 54
49 50 51 53 53 51 51 52 53 54 56 56 58 59 58 57 57 55 51 50 51 48 49 47 46 46 45 44 43 42 42 41 39 40 42 49 48 47 47 49 49 49 50
47 47 48 51 53 55 54 56 55 57 60 61 61 61 60 56 56 54 52 49 49 47 46 45 44 44 43 42 41 40 39 38 38 36 36 48 46 45 44 45 46 46 46
46 50 51 51 54 54 57 58 59 60 61 61 61 61 59 58 56 53 51 48 46 45 45 43 43 40 37 37 35 33 32 32 33 32 34 34 44 43 40 41 41 42 42
47 52 54 56 56 58 58 58 58 57 56 59 59 59 58 56 55 51 47 45 45 44 42 38 36 34 33 31 31 29 27 25 28 25 30 33 33 42 39 40 37 37 37
50 53 56 58 58 57 57 57 56 56 56 56 56 55 54 50 48 47 45 44 44 40 37 35 32 31 31 30 30 28 23 24 26 26 24 31 32 31 32 38 34 33 34
52 57 58 58 57 56 56 56 56 56 55 51 51 48 47 46 45 44 43 41 37 35 33 33 30 28 28 27 26 27 24 26 26 26 30 32 30 28 29 30 32 32 33
52 58 58 58 58 56 56 56 55 54 50 47 45 44 44 45 44 41 39 39 36 34 33 33 32 29 28 27 27 29 27 24 24 33 32 29 27 27 29 29 29 29 32
54 57 57 58 57 57 54 53 52 49 45 44 43 44 44 44 40 38 35 35 35 30 32 33 33 31 29 28 26 27 27 26 23 23 27 28 28 26 29 28 29 28 28
55 57 58 58 57 57 50 52 52 47 45 44 43 44 44 41 38 34 36 34 33 32 31 31 33 32 31 28 27 26 24 23 22 25 25 24 24 26 25 27 26 26 27
56 56 57 56 56 54 53 49 46 45 44 43 43 43 42 39 36 35 35 34 33 33 31 33 33 31 29 29 28 26 24 22 23 23 23 23 25 24 22 22 23 23 25
55 56 54 53 52 50 46 44 43 41 40 40 41 41 41 39 37 35 32 34 35 34 33 33 31 33 32 29 28 26 28 26 23 22 23 23 23 21 22 22 20 21 22
54 53 51 50 47 45 45 43 43 43 43 43 42 42 40 38 36 35 35 35 35 34 34 35 35 37 34 32 31 32 31 29 26 26 25 22 21 21 22 21 21 20 20
50 50 48 45 44 45 45 45 45 44 41 40 39 36 33 31 30 32 33 34 35 33 33 33 33 32 34 35 35 35 31 29 26 25 24 22 22 20 19 20 21 19 19

GFSSE_sfc_30mbdewp_045.txt.gz
Dewpoint
66 69 70 70 70 70 70 69 69 69 69 68 67 66 65 65 63 61 60 58 58 57 57 58 57 57 57 58 59 59 59 61 63 65 64 63 63 62 62 64 64 64 65
68 69 70 70 70 69 69 69 69 68 67 66 65 65 64 63 62 61 60 58 58 57 57 57 56 56 55 56 57 58 59 60 59 64 63 62 62 62 61 61 63 63 64
68 69 69 69 69 69 69 69 68 67 66 64 64 64 63 62 61 61 60 59 59 57 57 56 55 55 55 56 57 58 58 60 61 60 62 62 62 62 61 61 60 59 58
68 68 69 69 69 69 68 68 67 66 64 64 63 62 61 60 60 59 60 60 59 57 56 56 56 56 56 57 57 57 58 59 60 61 54 55 57 60 61 60 59 58 57
66 68 69 69 69 68 68 67 66 66 64 63 62 60 59 60 60 60 62 61 59 57 57 56 56 56 56 54 54 54 56 56 54 53 55 56 55 56 58 60 59 58 58
66 68 68 68 68 68 68 67 66 65 63 62 61 60 60 60 61 61 62 61 59 58 57 56 56 56 53 50 49 50 50 55 50 53 56 58 57 57 57 58 59 58 59
66 67 66 66 67 68 67 66 65 64 63 62 62 62 61 60 60 61 62 61 60 59 57 57 57 55 51 49 49 47 47 51 49 53 56 58 58 56 57 58 59 59 59
65 64 64 64 67 67 67 66 65 64 63 62 62 62 61 61 61 61 61 61 61 60 58 56 55 53 50 48 47 46 47 50 47 50 52 53 56 54 55 56 57 59 59
64 63 63 66 65 66 65 65 64 64 63 62 62 61 61 61 61 61 61 61 61 59 57 54 53 52 50 46 45 49 48 48 44 48 48 52 53 51 53 55 56 57 58
63 63 64 64 64 64 64 63 63 62 62 61 60 59 59 59 60 59 59 59 59 57 54 50 48 49 50 48 45 51 47 46 44 46 50 53 51 50 52 54 54 55 55
62 64 63 62 63 63 63 63 62 61 59 59 58 58 58 59 59 60 56 57 56 54 51 49 47 48 50 50 49 49 45 45 44 46 50 52 49 49 51 52 52 52 52
61 62 62 63 61 60 60 61 61 60 58 58 57 58 57 57 59 56 55 55 54 53 51 49 48 51 49 47 47 46 46 44 42 43 50 50 47 47 48 49 49 49 49
60 59 61 62 59 56 58 58 59 58 57 57 57 57 58 59 59 56 55 56 55 55 54 51 48 46 44 45 47 44 45 40 38 42 49 47 45 44 45 46 46 45 45
60 57 57 56 54 55 57 57 57 58 59 61 63 62 61 60 60 59 57 56 52 50 47 47 43 42 42 39 40 41 37 34 35 36 48 47 45 44 44 43 43 42 41
56 55 54 55 54 55 56 59 61 61 62 63 61 61 60 59 57 55 50 49 48 46 45 42 39 40 38 37 34 37 33 31 29 35 37 46 45 44 42 41 40 38 38
54 53 54 56 56 61 61 61 61 62 61 60 60 59 58 57 52 49 48 47 46 43 42 38 38 36 36 35 32 33 34 30 29 32 32 33 46 43 42 40 37 36 36
52 52 54 57 61 59 57 57 58 59 59 58 59 57 56 51 49 49 47 45 44 43 38 38 35 34 33 34 31 32 33 31 33 32 29 33 45 43 42 37 35 34 36
51 52 55 60 58 57 56 57 57 57 57 58 56 54 52 50 49 47 44 42 43 41 39 37 35 35 34 35 33 30 33 32 31 30 31 35 35 37 42 40 33 35 35
51 55 59 58 56 56 56 56 56 55 55 55 52 49 48 48 47 45 42 40 42 39 37 36 36 36 35 35 33 31 32 33 30 32 32 34 31 33 32 36 37 32 31
56 58 57 57 56 56 56 56 56 55 53 53 49 47 47 47 46 43 43 40 39 38 36 36 37 38 36 36 35 32 31 31 32 31 30 29 31 29 31 33 29 27 32
58 58 57 56 56 56 55 54 53 51 51 48 46 47 47 47 43 44 43 41 38 37 35 39 37 36 36 36 33 32 32 31 28 31 30 27 29 28 27 28 28 29 29
58 58 57 56 56 57 55 53 52 49 48 45 45 46 47 45 41 39 38 37 37 36 38 38 37 36 37 36 33 33 30 31 31 31 30 28 29 29 27 29 28 26 26
58 58 57 57 56 57 56 53 52 49 47 46 46 46 46 41 39 39 38 37 37 38 37 37 38 37 36 37 36 34 31 29 31 30 30 28 29 29 28 28 25 26 27
58 59 58 57 57 57 55 53 51 47 46 46 46 47 42 41 40 38 37 36 38 39 37 39 39 37 36 33 36 36 35 34 32 31 29 30 29 28 27 26 27 26 26
58 58 58 57 57 57 56 53 49 47 46 46 46 45 42 41 40 39 40 40 37 36 35 33 32 33 34 33 33 36 35 35 35 33 30 29 30 29 27 27 26 26 25
58 58 58 57 56 55 52 50 47 46 45 46 46 44 43 43 40 38 35 33 33 32 32 32 32 32 33 34 35 37 36 35 34 35 33 31 30 28 28 28 26 25 26

GFSSE_sfc_30mbdewp_048.txt.gz
Dewpoint
68 69 70 71 70 70 69 69 69 68 67 65 65 64 63 62 61 60 60 61 59 58 57 56 56 56 56 56 58 59 60 64 64 63 63 63 62 60 60 62 62 63 64
68 69 70 70 70 69 69 69 68 67 65 64 64 63 63 62 61 60 61 60 59 56 55 55 55 55 55 57 59 60 60 61 64 64 63 62 62 61 60 60 60 60 60
68 69 69 70 69 69 69 69 68 66 63 62 62 62 62 61 60 61 61 60 58 55 55 55 54 54 55 57 59 63 62 61 63 61 60 61 60 60 59 59 59 57 58
68 69 69 69 69 68 68 68 66 64 63 63 62 61 62 60 60 60 61 60 58 56 55 54 53 52 54 57 57 58 59 59 57 56 55 56 57 57 57 57 57 56 56
67 68 68 69 68 68 68 67 65 65 64 63 61 61 60 60 60 60 61 60 58 56 54 53 51 51 54 56 56 56 54 55 56 57 58 57 56 57 58 59 58 58 57
68 68 68 68 68 68 67 66 65 64 63 62 62 62 61 60 60 60 61 60 58 56 55 53 52 52 52 52 55 54 55 55 55 56 57 58 57 56 57 59 59 59 59
67 67 67 68 68 67 66 65 64 63 62 62 63 62 61 60 59 60 62 61 59 56 56 55 53 50 51 53 53 55 52 53 52 53 55 56 56 55 55 56 58 59 60
65 65 65 65 65 66 65 65 64 63 63 63 63 62 61 61 61 61 61 61 59 57 56 55 54 51 49 51 53 52 50 48 49 50 52 52 54 54 55 55 57 58 58
64 62 62 63 63 66 65 64 63 63 63 63 63 62 62 62 61 61 61 60 58 56 54 53 51 51 50 49 51 48 49 48 46 49 51 53 53 54 54 54 54 53 53
62 61 60 60 63 64 64 63 62 62 62 61 61 60 60 60 59 59 59 58 57 55 52 50 50 50 51 51 49 49 46 45 46 48 50 53 50 51 52 52 52 51 51
59 60 59 61 63 63 63 62 62 61 60 60 60 59 59 59 57 56 56 57 56 53 51 51 53 52 49 49 49 48 45 42 42 48 50 52 47 49 50 50 50 49 49
59 60 62 61 62 62 61 61 60 59 59 58 58 57 57 58 59 55 57 58 55 54 53 52 48 46 43 44 45 45 42 38 38 43 49 49 45 46 48 48 47 46 45
58 61 62 61 61 59 59 60 59 58 56 56 57 56 57 59 58 56 56 55 55 52 47 44 43 42 39 38 40 39 35 33 33 39 49 48 44 43 46 45 44 43 44
60 61 62 60 58 57 58 58 57 56 58 58 58 59 59 59 58 55 54 53 49 47 43 41 41 39 37 35 36 36 33 30 30 36 40 47 45 43 44 43 41 40 42
59 59 61 58 55 56 57 57 58 59 61 61 61 60 60 58 57 52 50 47 46 44 39 37 36 35 35 32 32 33 32 30 31 33 33 38 46 43 43 41 39 38 41
58 57 59 56 54 57 59 59 60 61 62 60 59 58 58 55 49 48 47 45 43 40 39 36 34 33 34 33 32 33 32 31 33 30 30 34 46 44 41 39 37 38 38
55 54 56 57 59 59 60 61 61 60 59 59 58 55 52 50 49 48 45 44 42 39 36 35 34 34 34 34 32 33 32 33 31 31 33 37 46 46 40 37 36 37 37
53 53 59 60 58 58 58 58 58 58 58 57 56 52 51 50 48 44 42 43 42 39 37 36 34 34 35 35 33 32 31 31 31 31 32 32 34 38 43 38 36 35 34
52 56 59 58 57 56 57 56 56 56 56 55 52 50 50 48 46 41 40 42 39 38 37 36 36 36 35 35 34 32 31 31 31 31 29 29 30 30 33 36 33 30 28
52 58 58 57 56 56 55 55 54 53 53 51 49 48 48 48 44 42 41 40 39 36 36 37 37 37 36 36 35 32 32 32 32 30 28 28 28 27 28 29 29 29 33
57 57 57 56 56 55 54 53 52 51 52 49 48 47 47 46 44 42 41 38 38 35 38 37 37 35 36 37 33 33 32 33 30 31 30 28 29 29 27 29 29 27 27
57 57 57 56 55 55 54 53 52 51 50 47 46 47 47 43 42 41 39 36 36 37 37 37 37 36 37 37 35 34 31 32 31 32 31 29 28 30 28 28 26 26 27
57 57 56 56 55 55 54 52 50 48 47 45 45 46 47 42 40 39 38 37 37 38 37 38 38 37 35 36 36 34 30 30 31 32 31 30 30 29 28 28 27 26 25
57 57 56 55 55 55 54 52 49 47 45 45 45 46 46 41 40 39 38 38 39 39 38 37 34 34 34 30 34 35 35 34 32 31 30 31 32 30 29 28 27 27 25
58 57 57 55 55 55 55 53 49 47 46 46 46 46 43 41 40 39 39 39 37 35 33 32 31 32 33 32 32 34 35 35 35 33 31 30 32 32 30 28 28 27 26
58 58 57 56 56 57 56 53 51 47 46 46 46 44 42 43 39 36 34 33 33 31 30 31 31 30 31 32 34 35 36 35 34 34 33 33 32 32 29 29 28 26 27

GFSSE_sfc_30mbdewp_054.txt.gz
Dewpoint
68 69 69 69 69 68 68 67 67 66 65 63 62 62 62 62 63 62 61 60 60 57 58 59 61 61 61 64 63 63 63 64 64 62 60 59 59 59 59 59 59 58 58
68 69 69 69 68 68 67 67 66 64 63 61 62 63 63 63 62 61 60 60 59 58 59 63 63 64 61 63 64 62 62 63 62 61 59 57 56 56 57 57 57 57 57
67 69 68 68 68 68 67 66 64 63 61 60 60 62 63 62 61 61 60 59 59 57 60 62 61 61 62 64 61 60 59 60 61 60 59 57 57 57 58 58 58 57 57
68 68 68 68 68 67 66 65 63 61 61 61 61 62 62 61 61 61 60 58 58 57 57 60 62 63 63 61 61 60 60 60 60 59 57 57 57 57 58 58 58 58 58
68 68 68 68 68 66 65 64 63 62 62 62 62 61 60 60 61 60 59 58 58 57 54 55 57 57 59 60 60 59 59 59 58 57 57 56 56 57 57 58 59 59 59
68 68 67 68 67 66 65 64 64 63 63 62 62 62 60 60 59 61 60 58 58 56 55 54 55 57 58 58 58 57 57 56 54 54 55 56 56 56 56 56 57 57 58
66 67 67 67 66 66 65 64 64 64 63 63 63 62 61 61 60 61 60 59 58 57 56 55 55 55 56 57 55 54 55 54 52 52 54 55 55 54 54 53 54 54 54
63 62 66 66 65 65 65 64 64 64 64 64 63 62 62 62 61 61 60 59 58 58 57 57 57 56 55 54 55 53 51 50 51 52 53 54 53 53 52 52 52 52 52
61 60 61 63 61 64 64 64 64 65 64 64 63 62 62 62 61 60 59 58 58 58 58 58 57 55 56 55 54 54 52 50 48 51 52 53 52 51 51 50 50 49 49
59 58 58 59 61 63 63 63 64 64 64 63 63 62 62 62 61 60 59 58 57 57 56 55 56 54 54 52 49 47 48 48 47 48 50 53 50 50 50 48 48 47 47
59 59 60 57 54 60 62 62 63 63 63 62 62 61 60 60 59 57 58 57 58 56 54 52 50 49 48 47 44 41 38 39 45 48 49 52 48 49 48 47 47 46 46
56 56 57 58 61 61 61 61 61 62 61 60 60 59 58 56 57 58 58 57 55 53 51 48 45 43 38 35 35 34 32 36 40 45 48 50 41 47 47 46 46 45 45
53 54 56 57 61 60 60 59 59 59 58 58 58 58 58 57 57 56 54 51 47 44 40 38 35 35 34 35 33 32 32 32 33 32 39 45 45 41 46 44 45 44 44
51 50 53 56 57 60 59 58 58 57 57 57 57 58 58 55 55 54 50 46 43 40 38 36 35 33 33 33 32 32 32 31 31 31 32 44 46 42 45 42 42 43 42
54 55 58 60 59 59 59 58 57 56 56 56 57 58 59 55 54 53 47 43 40 38 35 34 33 33 33 33 32 32 31 31 32 33 34 45 46 43 43 41 40 42 40
56 57 60 60 59 58 58 57 57 57 57 58 59 59 59 57 53 50 45 41 38 35 34 33 33 33 32 32 32 32 32 30 30 33 40 47 49 44 41 39 39 39 38
56 59 60 60 58 57 57 57 57 58 59 59 59 59 57 55 50 47 42 39 36 35 35 35 35 35 34 33 31 31 31 31 29 32 34 38 42 44 40 37 39 37 36
58 59 60 59 56 57 56 57 58 59 59 58 57 55 53 52 49 45 42 38 37 36 35 35 35 34 35 34 32 31 31 32 29 29 29 31 33 37 39 35 33 32 30
58 57 59 57 56 56 57 57 58 58 57 56 54 53 50 49 46 44 42 39 38 37 36 36 36 35 34 35 35 32 34 31 30 28 28 27 28 29 32 32 35 36 37
57 56 57 57 56 56 56 56 56 56 55 54 52 50 49 47 44 43 41 39 38 36 36 37 36 37 36 36 35 34 35 33 31 29 28 29 28 28 28 29 29 27 33
55 56 57 56 56 56 55 55 54 54 53 51 51 50 48 44 42 42 40 39 37 35 36 36 36 35 36 37 34 33 33 33 31 31 31 30 29 30 29 29 27 27 27
54 56 57 56 56 56 56 54 53 52 51 50 50 49 47 44 42 40 39 37 36 37 37 37 36 36 37 36 31 32 24 28 31 32 33 31 31 31 30 29 28 26 26
54 56 56 56 55 56 55 53 51 50 49 48 47 47 47 44 42 39 38 37 38 38 37 37 37 34 31 33 34 25 18 20 30 32 32 32 31 32 30 32 29 27 28
53 56 56 56 55 55 54 52 51 50 49 47 46 46 47 45 43 41 38 38 38 38 38 35 34 34 30 26 31 35 32 31 29 29 32 32 32 32 33 34 32 29 29
53 55 56 56 55 55 54 52 51 50 50 48 47 46 46 43 42 40 39 39 39 37 33 32 31 31 32 30 30 31 33 33 33 32 31 32 33 33 33 33 31 30 28
53 55 56 56 55 55 54 53 51 50 49 48 46 45 45 42 41 40 39 37 34 32 31 31 31 31 32 32 33 34 34 33 33 33 32 32 29 31 33 30 30 27 25

GFSSE_sfc_30mbdewp_057.txt.gz
Dewpoint
66 67 69 69 69 68 68 68 67 66 65 64 63 63 63 63 63 62 62 61 61 61 61 62 64 64 62 61 62 63 63 62 61 60 57 57 57 58 58 58 57 56 58
67 67 69 69 69 68 67 67 66 64 63 63 64 64 63 63 62 62 61 62 62 63 64 62 64 63 62 59 60 61 60 62 61 60 57 56 58 58 58 58 58 57 58
67 66 67 69 68 67 67 66 65 63 62 62 64 64 63 62 62 61 61 62 65 63 64 62 64 63 58 59 61 60 60 60 60 60 57 53 56 58 58 58 58 58 58
67 66 66 68 67 67 66 65 64 62 63 64 64 63 62 62 61 61 60 62 64 64 62 62 64 60 59 61 61 60 60 60 59 57 53 53 54 57 58 58 58 58 58
66 66 66 67 67 66 65 64 63 63 63 64 63 63 63 62 61 61 60 60 61 62 62 63 60 58 60 61 61 59 59 59 58 54 53 54 53 56 56 57 56 57 58
66 67 66 67 66 65 64 63 63 63 64 63 62 62 62 61 60 60 60 59 59 59 58 57 56 57 59 59 59 57 57 56 53 52 52 54 53 54 54 54 55 55 55
65 65 66 66 66 65 64 63 63 64 63 63 62 62 62 61 61 60 60 60 58 58 58 57 57 57 57 57 57 56 56 55 50 50 50 52 53 53 52 52 53 53 54
62 65 65 65 65 63 64 64 64 64 64 63 63 62 62 62 62 61 60 60 59 58 57 56 56 57 58 56 54 53 53 52 47 48 49 50 52 52 51 50 50 50 51
61 59 59 59 59 59 59 65 64 64 64 63 63 63 63 62 61 60 59 59 59 58 58 58 58 56 55 54 54 53 52 52 46 48 47 48 51 50 49 48 47 48 48
60 59 59 57 56 56 59 63 64 64 64 64 63 62 62 61 60 60 59 59 59 59 58 56 57 54 51 50 50 48 47 47 44 45 47 48 50 50 48 48 47 47 47
57 57 57 55 55 56 59 62 63 64 63 63 61 61 59 56 55 53 58 59 57 57 54 53 51 49 48 46 44 44 43 44 43 44 44 51 49 49 48 47 46 46 46
57 56 56 55 52 50 51 56 62 63 61 61 60 59 56 56 55 54 57 56 55 53 52 48 45 41 35 33 34 35 34 35 33 33 40 49 43 48 47 47 46 45 44
56 52 50 50 53 58 58 60 60 60 59 59 59 58 57 58 57 57 54 50 47 45 38 38 36 36 37 34 35 34 34 32 31 30 35 46 47 45 46 46 45 45 43
54 51 57 59 60 59 59 59 59 57 57 56 58 58 57 56 56 54 49 46 44 41 40 38 37 38 37 36 36 35 35 31 31 31 32 47 46 44 45 42 45 43 42
51 52 54 58 60 59 58 58 57 57 56 58 59 60 58 56 56 52 47 44 41 39 38 36 35 35 36 35 35 33 32 33 34 36 42 51 48 44 43 41 42 41 41
49 51 54 56 59 59 57 57 57 58 58 58 58 59 59 56 55 49 45 42 39 37 37 35 34 34 34 34 34 34 34 32 33 40 44 46 47 44 41 40 39 39 38
50 52 54 56 59 59 58 57 57 57 57 57 57 59 60 57 55 50 45 41 38 38 38 38 37 37 34 33 34 34 33 33 33 35 41 43 42 43 41 40 38 36 35
51 54 57 58 59 59 58 57 57 57 58 59 59 60 60 58 54 50 45 40 40 39 39 39 36 36 35 34 34 34 34 32 32 32 32 35 36 36 36 38 38 37 36
55 55 58 60 59 59 58 57 58 59 60 60 59 58 57 56 52 49 43 41 41 39 39 37 38 36 35 35 34 35 36 33 31 28 30 31 32 31 30 31 35 34 37
55 57 59 60 59 58 58 58 58 59 59 59 57 56 55 53 50 46 43 42 41 39 39 39 38 39 37 37 34 34 36 35 32 31 32 31 31 32 32 31 30 28 33
57 57 58 58 58 57 56 56 56 57 58 57 55 54 52 50 47 45 42 42 40 39 39 40 39 39 38 38 35 32 34 36 35 32 34 33 32 33 33 31 30 28 26
55 57 57 58 57 57 55 55 55 56 56 56 55 53 51 48 46 45 42 40 39 39 40 40 40 38 38 37 29 30 23 27 33 34 34 34 35 33 33 32 33 31 29
55 56 57 57 57 56 56 55 54 54 53 53 53 52 50 47 45 44 43 40 40 40 39 40 40 38 34 35 36 25 18 15 25 30 33 33 35 34 33 33 33 34 31
55 56 57 57 57 57 56 54 53 53 53 53 52 52 50 47 44 42 42 41 41 40 40 40 37 35 32 27 32 34 33 28 19 20 29 33 35 34 34 32 31 33 31
55 56 57 57 56 57 56 55 54 54 55 52 51 50 49 47 45 42 41 41 41 41 40 37 36 34 32 29 27 30 32 31 33 28 21 27 31 30 30 29 31 32 28
55 56 57 57 56 56 56 55 54 54 53 51 50 49 48 46 45 43 41 41 41 39 37 35 34 33 34 32 33 35 31 27 25 28 27 27 27 27 30 30 30 31 26

GFSSE_sfc_30mbdewp_060.txt.gz
Dewpoint
65 64 69 69 69 69 69 69 68 67 66 65 64 64 64 64 63 64 63 63 64 65 65 64 64 61 61 61 61 61 61 61 60 60 58 58 58 58 59 59 57 57 59
66 64 69 69 69 69 69 68 67 66 65 65 64 64 63 63 63 63 64 64 64 64 64 63 61 58 58 59 60 60 60 61 61 60 59 57 58 58 59 59 59 58 59
65 63 66 69 68 68 68 66 65 65 65 65 64 64 63 63 63 64 65 66 65 64 64 62 58 58 59 60 61 60 60 59 59 55 53 50 55 58 58 59 59 58 58
65 64 63 68 68 67 66 65 64 65 65 64 64 63 63 63 63 65 66 65 66 65 64 59 58 59 60 61 60 60 59 58 56 53 49 49 51 56 56 57 59 59 59
65 64 65 68 67 66 65 64 64 64 64 64 63 63 63 63 62 64 66 65 65 65 63 58 59 60 60 61 60 59 58 56 53 49 49 50 50 55 55 56 54 55 56
65 65 67 67 67 65 65 64 64 64 64 64 63 63 62 62 62 62 63 64 65 64 59 57 58 58 60 59 59 57 56 53 51 46 48 51 51 53 53 54 54 54 55
64 66 66 66 66 65 64 64 64 64 63 63 63 62 62 62 62 61 61 62 61 60 57 56 56 57 58 58 57 57 54 50 43 43 46 49 52 52 51 51 52 52 52
61 61 66 66 65 63 61 62 64 64 63 63 63 62 62 62 62 62 61 60 60 60 60 59 58 57 56 55 55 55 52 51 42 43 46 49 51 50 49 49 49 49 50
59 59 58 58 59 58 59 58 59 63 64 63 63 63 63 62 61 61 61 59 59 58 58 57 58 57 55 54 53 53 50 46 41 43 43 47 51 50 48 48 48 48 49
58 57 56 55 55 55 54 57 60 64 64 64 64 63 62 61 61 61 60 60 59 59 58 56 55 54 53 51 49 48 45 42 38 38 43 48 51 49 48 47 47 47 48
57 56 56 54 54 55 56 59 60 63 63 62 61 59 55 52 52 52 57 61 59 58 56 54 52 50 48 47 46 43 42 35 34 36 40 51 49 49 48 47 47 46 46
57 56 56 56 55 54 55 57 59 59 58 58 56 54 51 51 51 53 57 58 57 55 52 49 45 41 38 35 33 34 31 31 28 27 37 48 47 49 48 46 46 45 44
56 54 55 54 53 54 56 57 57 59 59 58 57 53 53 53 53 53 52 49 48 47 41 40 40 39 38 34 33 32 31 28 26 25 34 46 47 49 47 47 46 44 43
53 53 52 50 51 51 52 52 53 51 54 53 54 54 54 52 53 52 50 48 46 44 43 42 41 39 37 35 35 34 32 28 26 25 36 46 45 47 44 45 45 44 42
50 50 51 57 58 54 52 52 52 53 53 52 54 54 53 53 53 52 50 47 46 45 43 40 39 36 35 34 33 32 31 30 30 33 40 50 49 46 43 42 45 41 41
50 54 55 55 53 53 52 55 53 52 51 54 53 54 55 54 54 52 50 47 45 43 41 39 37 35 33 33 33 32 31 28 32 35 36 43 46 45 43 41 40 40 39
49 50 52 51 54 53 52 54 52 52 52 50 54 58 55 54 55 52 50 47 44 42 41 39 37 36 33 29 31 31 29 30 31 31 33 37 41 43 42 40 38 37 36
48 50 51 51 54 55 52 52 51 51 51 51 54 58 60 56 55 53 50 47 44 42 40 39 38 35 33 30 31 30 30 29 31 30 32 34 32 25 39 37 36 35 34
49 49 50 50 51 57 56 52 52 53 52 52 56 58 60 60 58 54 50 47 45 42 40 39 38 36 34 32 31 33 34 31 30 26 29 31 31 27 25 33 31 32 36
49 51 51 52 54 58 58 56 53 54 53 55 57 58 60 60 58 55 51 47 43 41 42 39 39 37 35 36 32 33 35 33 30 30 30 30 29 29 30 30 28 29 29
49 52 53 54 56 58 57 53 50 51 52 54 56 59 59 58 57 55 50 46 43 42 41 42 41 39 38 38 36 34 34 34 34 31 31 30 30 30 32 31 31 28 27
50 51 53 55 57 57 56 52 50 50 52 53 57 58 58 57 55 53 49 45 43 43 43 42 40 39 39 37 34 32 31 30 32 32 31 30 32 31 29 31 33 33 32
53 53 53 54 56 56 56 53 51 51 54 54 55 58 57 55 53 51 48 44 44 43 42 42 42 40 38 37 35 30 30 29 27 26 29 30 30 31 31 31 31 29 31
53 53 54 54 55 56 57 53 52 48 48 51 54 57 57 54 52 49 46 44 45 42 41 42 41 40 38 34 32 30 31 28 24 22 24 28 33 32 31 31 28 28 30
54 55 55 54 55 56 57 56 54 51 47 51 56 56 55 53 50 46 45 45 45 42 43 42 41 39 34 30 30 31 31 29 28 25 20 18 23 26 26 28 28 28 29
54 55 56 56 55 56 57 57 56 55 53 55 55 55 54 53 50 47 44 45 44 42 43 42 40 36 32 35 35 32 28 23 21 21 21 21 22 23 26 27 27 25 26

GFSSE_sfc_30mbdewp_063.txt.gz
Dewpoint
62 64 69 70 70 70 70 70 69 68 67 66 65 65 65 65 65 65 66 66 67 66 64 63 62 61 61 60 61 61 61 62 61 60 59 59 59 59 59 60 57 57 59
63 64 69 70 70 70 70 69 68 67 66 65 65 65 65 65 65 65 66 67 67 65 61 60 59 58 59 60 60 60 60 59 61 61 59 57 58 58 59 60 60 58 58
64 63 67 69 69 69 69 68 67 66 65 65 65 64 65 65 65 65 65 66 66 64 59 59 59 59 60 60 60 59 58 57 55 53 54 50 55 57 59 60 60 59 60
64 64 65 69 69 69 68 67 66 65 65 65 64 64 65 65 66 66 66 66 66 63 59 59 59 60 60 60 59 58 57 55 54 56 48 47 51 57 56 56 56 57 57
65 64 66 68 69 68 67 66 65 65 65 64 64 64 65 67 67 67 66 66 65 61 59 59 59 60 60 60 59 57 56 55 56 47 48 49 49 54 54 55 54 55 55
65 65 67 68 67 66 66 65 65 65 64 64 64 64 65 67 67 66 66 65 64 61 59 59 58 59 59 59 57 55 53 52 52 47 49 50 50 52 53 53 53 53 53
63 63 67 67 66 65 65 65 65 64 64 64 64 64 64 64 65 66 66 65 62 60 58 57 57 57 58 57 56 52 52 50 42 46 47 49 50 50 51 51 51 52 52
62 62 65 64 63 63 63 64 64 64 64 63 63 63 63 63 63 63 62 61 61 60 59 58 57 56 55 55 54 51 48 47 41 46 48 49 50 49 50 50 50 50 50
61 62 61 61 59 58 58 59 60 62 63 63 64 63 63 63 62 62 62 62 61 60 59 57 56 56 54 54 51 45 43 42 41 43 45 48 50 48 49 49 49 49 49
58 58 59 59 57 56 55 55 57 60 63 64 63 62 62 62 61 61 60 59 59 58 57 56 56 54 52 50 47 42 41 42 38 40 45 50 49 48 48 48 48 48 47
57 57 56 56 56 56 57 58 60 62 63 62 61 59 57 57 53 53 58 60 59 58 56 54 52 49 47 45 40 39 42 32 31 37 45 51 50 49 48 47 47 47 46
55 56 56 56 56 55 54 56 59 59 59 57 56 55 53 54 54 56 59 59 58 56 53 50 44 43 43 35 33 34 31 31 28 28 42 49 50 49 48 47 46 45 44
55 55 55 55 55 54 55 56 58 57 57 55 55 53 54 55 56 56 55 51 51 48 41 40 40 42 39 35 34 33 31 28 27 25 36 45 49 49 48 47 46 44 42
55 55 56 55 56 55 56 57 57 58 57 55 54 56 56 55 55 53 50 49 47 46 43 45 44 42 38 37 36 34 33 29 28 27 41 43 46 49 46 48 45 44 43
54 54 55 55 57 56 54 53 53 54 52 53 53 55 56 54 55 51 51 49 48 47 47 45 43 40 38 36 34 32 31 31 32 34 41 50 49 48 44 43 46 41 42
52 52 53 54 54 53 51 48 49 48 48 52 53 55 56 54 55 52 52 49 48 47 46 44 42 40 36 35 34 32 31 29 33 35 39 44 46 46 44 42 41 41 40
52 55 55 53 54 53 52 52 51 50 49 51 51 53 54 54 55 53 51 49 48 47 46 43 41 39 36 32 33 32 31 31 31 31 33 41 43 44 44 41 40 39 38
52 51 50 47 51 52 52 52 49 48 50 52 51 53 55 54 55 54 52 50 49 47 45 44 42 40 36 33 32 32 32 31 31 30 32 35 35 31 42 40 35 35 34
48 49 51 48 50 49 49 51 50 53 51 49 50 54 56 55 55 54 53 52 49 47 45 44 43 41 36 34 34 35 36 34 33 28 30 32 32 28 27 35 33 32 33
48 49 49 49 50 51 53 51 49 50 49 48 50 51 57 59 59 57 54 53 50 47 45 44 44 41 38 37 33 33 38 37 35 33 32 32 31 31 31 32 31 31 33
48 49 49 48 49 52 52 50 47 47 48 49 51 53 56 59 60 59 55 53 51 47 46 46 45 41 39 40 38 38 37 38 37 34 34 33 31 31 31 32 33 30 31
47 48 48 48 49 52 52 51 46 44 46 47 49 53 58 59 59 58 56 53 51 47 47 47 45 42 41 41 39 36 36 35 35 35 34 33 33 33 31 30 32 33 32
48 49 50 50 50 51 50 50 46 46 46 48 49 52 58 59 58 57 56 53 51 48 47 48 45 42 40 41 39 36 35 34 35 33 34 33 32 32 32 31 32 31 30
50 49 50 50 50 51 52 50 48 45 43 46 49 50 56 57 57 56 55 52 49 48 48 48 46 44 42 40 39 34 33 35 34 32 30 29 31 32 34 33 31 30 28
52 51 51 50 50 51 53 52 51 48 46 47 49 51 57 57 56 55 54 51 49 48 48 47 46 44 42 39 35 33 37 37 35 31 29 28 25 26 27 28 29 29 28
50 52 53 52 51 52 53 54 54 52 51 46 47 54 57 57 55 54 51 51 50 49 48 46 46 44 40 35 35 34 34 33 27 28 26 25 23 25 25 26 28 28 26

GFSSE_sfc_30mbdewp_066.txt.gz
Dewpoint
64 67 70 70 70 70 70 69 69 68 67 67 66 66 66 66 66 66 68 67 67 65 63 62 61 60 59 59 60 61 62 62 62 61 59 58 58 60 60 60 59 58 59
63 67 70 70 70 70 70 69 68 67 66 66 66 66 66 66 67 68 68 67 65 63 61 60 59 59 59 59 60 60 61 63 62 60 58 57 58 60 61 59 59 57 60
60 67 69 70 70 70 69 68 67 67 66 66 66 66 66 67 67 68 67 65 63 61 59 60 59 59 58 58 59 58 58 58 59 59 55 54 57 56 58 58 58 58 58
58 66 68 69 69 69 69 67 67 66 66 65 65 66 66 66 67 67 66 64 62 61 60 59 59 59 58 58 59 58 58 58 58 53 49 51 53 57 56 55 56 56 57
66 64 68 69 69 69 68 67 66 66 65 65 65 66 66 66 67 67 66 62 62 61 60 59 59 59 58 58 57 56 53 54 54 50 50 50 52 54 54 54 54 55 54
65 65 68 68 68 68 67 66 66 65 65 65 65 66 67 67 67 67 64 62 62 61 59 58 58 57 57 55 54 53 53 53 52 49 50 51 52 53 52 53 53 53 53
65 66 64 63 68 67 66 66 65 65 65 65 66 67 67 67 66 66 63 63 62 60 58 57 57 57 56 53 52 51 48 48 48 48 49 50 51 51 51 51 51 51 51
62 61 61 61 61 66 66 65 65 65 65 65 65 66 66 67 66 65 63 62 61 60 59 57 57 55 55 51 47 45 45 48 49 49 49 50 50 50 50 50 50 50 50
62 61 59 59 60 60 62 62 61 64 64 64 64 64 64 64 63 63 62 61 61 60 58 56 55 55 53 45 43 43 44 45 47 49 49 50 49 49 50 50 50 49 49
62 61 59 58 57 57 58 60 60 64 64 64 64 63 62 62 63 62 62 61 60 59 57 56 55 52 47 42 39 40 42 42 45 49 50 51 49 49 49 49 49 48 48
57 59 59 57 56 56 56 57 58 63 63 62 62 60 59 59 58 57 60 60 59 58 57 55 51 44 40 37 37 37 39 33 42 49 51 52 50 49 48 48 47 46 46
55 56 57 56 56 56 57 54 56 60 60 59 58 57 56 55 57 59 60 59 58 56 55 52 47 43 40 35 36 36 34 35 39 48 50 52 50 49 48 47 46 44 45
55 56 57 57 57 56 56 53 57 58 59 58 57 56 56 58 58 58 56 55 54 51 45 46 45 44 43 39 38 38 36 31 35 37 45 50 51 50 48 47 46 44 42
55 55 56 56 57 57 57 57 58 58 57 55 58 56 58 57 57 55 53 52 50 49 42 44 47 43 40 39 38 36 35 34 35 40 43 42 50 49 49 47 46 44 43
54 55 55 57 57 57 57 57 58 57 55 56 57 56 57 56 56 54 54 51 49 50 48 50 45 42 40 38 36 35 34 33 34 43 48 48 47 48 45 48 45 42 43
54 54 56 56 58 56 57 58 57 56 56 55 56 58 58 56 57 54 55 52 51 50 50 48 46 42 41 38 36 34 33 35 35 43 45 48 49 47 45 43 43 42 41
54 54 55 56 57 56 54 52 51 51 54 55 56 58 57 57 57 56 54 54 52 51 49 49 45 44 39 39 37 35 35 33 33 33 44 46 46 45 45 44 42 40 38
53 55 55 54 54 53 52 47 52 49 51 54 56 56 57 56 57 56 54 54 51 52 49 46 44 42 41 37 36 36 34 33 33 32 34 42 44 44 46 44 40 36 34
53 53 51 52 54 55 54 52 53 52 53 53 55 57 57 56 57 56 56 54 52 50 49 48 46 46 41 37 36 38 38 37 34 33 34 33 34 33 41 42 37 36 34
51 48 47 50 53 54 55 54 53 54 52 52 52 56 57 56 58 57 56 54 52 51 50 47 48 45 44 39 36 36 41 39 38 36 33 34 35 34 32 36 36 36 36
50 51 50 50 53 54 52 52 51 53 52 51 51 53 59 59 59 59 56 56 53 52 49 48 49 46 42 43 41 41 41 41 39 38 37 36 35 35 34 34 34 35 34
50 52 51 51 53 53 52 52 50 51 52 50 51 53 58 59 60 60 59 57 54 52 51 50 48 46 44 44 41 42 38 40 39 39 38 37 36 35 35 34 35 34 35
50 51 50 50 51 52 51 51 50 50 50 50 50 53 58 60 60 59 59 58 55 53 52 51 49 48 44 45 42 40 38 37 37 40 38 37 37 35 35 33 34 35 32
50 51 50 49 49 51 53 51 50 46 45 48 49 52 58 60 60 59 58 58 55 53 50 50 50 48 46 44 42 39 35 37 36 35 36 37 36 35 35 35 34 33 32
50 51 51 51 50 51 52 52 51 48 48 47 50 50 57 58 58 58 57 57 53 53 52 53 49 48 47 45 42 37 38 37 39 37 34 33 35 34 35 38 36 33 31
51 52 52 52 51 51 53 53 54 51 50 48 50 51 58 58 58 58 56 54 53 52 52 53 52 50 50 44 39 36 37 37 35 35 31 30 31 30 31 32 33 31 31

GFSSE_sfc_30mbdewp_069.txt.gz
Dewpoint
68 70 70 70 70 70 70 69 68 67 67 67 67 66 67 67 68 68 67 66 65 63 61 60 59 59 60 61 61 62 63 62 61 61 59 59 59 59 59 59 59 59 59
62 68 69 70 70 70 69 69 68 67 67 67 67 66 67 68 68 68 67 65 63 61 60 59 57 58 60 61 62 63 62 61 60 59 58 56 57 58 58 57 59 60 60
60 61 66 67 70 70 69 68 67 67 67 67 66 67 68 68 68 66 65 64 62 61 59 58 56 56 58 59 60 60 59 59 58 57 56 56 56 56 57 56 57 57 57
61 61 62 61 66 70 69 68 67 67 67 67 66 68 68 68 66 65 63 63 63 60 58 57 55 57 59 59 58 58 58 55 54 53 53 53 55 55 55 55 55 55 57
58 59 57 63 68 69 68 67 67 66 66 66 66 67 68 67 65 64 63 63 62 60 58 56 55 57 57 56 56 54 57 55 54 52 52 53 53 54 54 54 54 55 57
66 66 67 67 68 69 68 67 66 66 66 66 66 67 68 67 64 64 64 63 62 59 57 56 55 55 54 53 52 54 55 53 51 51 51 52 52 53 52 52 52 53 53
64 64 64 64 66 62 67 67 66 66 66 66 66 67 67 66 64 64 63 62 61 59 57 56 54 53 52 51 50 52 55 52 50 50 50 51 52 52 52 52 52 52 52
62 62 63 63 61 60 60 66 66 66 66 67 67 67 67 65 64 64 63 61 60 60 58 56 55 53 48 47 48 47 54 51 50 50 50 51 51 51 51 51 51 51 51
60 60 60 61 60 60 60 64 64 64 67 67 67 66 66 64 64 63 62 61 61 60 57 55 54 50 45 44 43 44 49 51 49 49 49 50 50 51 51 50 50 50 50
60 58 58 59 59 59 59 60 60 59 64 65 65 65 64 63 63 62 61 61 60 58 56 54 50 42 40 40 39 39 48 51 50 50 50 51 50 50 50 49 49 49 49
58 58 57 57 58 58 58 58 59 58 63 63 63 62 62 61 60 60 61 60 59 58 55 52 44 39 37 36 36 39 42 49 50 51 52 51 50 49 49 48 47 47 47
56 56 56 56 56 57 57 57 58 61 61 60 59 57 58 58 59 59 60 59 58 56 55 50 44 41 37 37 38 37 38 48 50 51 53 52 50 49 48 47 45 46 45
56 56 57 56 57 55 54 55 57 60 60 58 57 55 58 59 58 57 57 56 55 52 50 47 43 42 43 39 36 35 37 42 45 48 53 53 50 50 48 47 45 44 44
55 55 57 57 57 54 54 54 58 59 58 57 56 58 57 56 55 54 53 52 47 45 42 43 45 41 38 37 36 34 34 35 38 43 50 52 51 50 49 47 46 45 43
54 55 57 57 56 57 58 58 58 58 56 57 57 58 57 55 53 53 52 50 48 45 43 48 42 40 38 36 35 34 32 36 39 42 44 50 51 50 50 47 46 44 43
55 55 57 57 57 57 56 57 58 57 55 57 57 57 57 56 53 53 53 50 49 49 49 45 42 41 39 37 35 34 34 36 43 45 47 47 49 48 46 46 45 42 42
54 55 56 57 56 55 54 55 56 57 56 56 57 57 56 57 53 54 53 51 51 50 50 46 45 42 41 37 35 34 33 34 37 42 45 48 50 47 46 44 44 43 40
54 54 55 56 54 55 55 55 54 55 55 55 57 57 56 57 55 55 53 53 52 52 50 48 45 43 40 38 36 35 34 35 32 35 44 46 46 46 48 46 44 39 36
54 55 55 56 55 56 54 53 52 52 53 54 55 56 57 57 56 56 54 54 52 51 48 45 44 42 41 39 36 36 36 34 32 32 38 43 44 44 45 46 41 37 36
54 54 53 54 54 54 53 49 52 52 53 53 56 56 56 56 57 56 56 54 51 49 49 48 45 47 44 39 38 38 38 37 34 35 33 36 34 38 41 41 38 37 38
53 52 50 52 52 53 51 48 51 50 52 52 53 56 56 56 57 56 56 54 52 49 49 48 47 47 44 42 40 40 41 41 38 38 34 34 34 35 37 37 35 36 38
48 48 48 49 49 53 53 53 53 52 52 52 52 54 57 56 57 57 56 55 52 50 51 48 47 47 44 43 39 41 39 41 40 38 39 37 35 36 34 35 35 35 34
45 46 46 49 51 53 52 52 51 53 52 51 51 51 58 59 59 59 58 58 54 52 51 50 48 47 44 46 42 40 38 38 38 39 39 39 38 36 35 35 35 34 35
49 49 49 49 52 53 52 51 50 49 50 50 50 52 57 59 60 60 59 59 56 54 53 52 52 50 47 46 44 39 37 38 36 36 37 39 38 37 35 35 35 35 33
49 51 51 51 51 52 52 51 50 49 49 50 50 50 58 59 59 59 59 58 57 55 53 52 52 51 51 51 46 40 41 41 40 36 35 35 35 36 36 35 35 35 33
50 50 50 50 50 50 51 52 52 50 48 47 50 51 55 59 59 59 59 58 57 54 53 52 53 52 51 49 48 44 43 41 40 37 35 33 29 30 33 34 37 36 33

GFSSE_sfc_30mbdewp_072.txt.gz
Dewpoint
68 69 70 70 69 70 69 69 68 68 67 68 68 68 68 68 67 67 66 65 64 62 60 61 62 62 61 60 60 61 62 62 62 60 59 57 58 58 60 60 60 58 58
68 69 70 70 69 69 69 68 68 67 67 67 67 68 68 67 66 66 65 64 63 60 59 60 62 61 61 61 62 61 60 61 60 58 57 57 57 57 58 59 59 60 60
64 68 69 69 69 68 68 68 67 67 66 67 68 68 68 67 66 65 64 63 61 59 57 60 60 60 60 59 59 60 58 58 58 58 57 56 56 56 56 55 59 60 60
63 63 66 64 64 63 67 67 67 67 66 67 68 68 67 66 65 64 63 62 61 58 55 58 59 59 57 57 59 59 57 56 56 55 54 54 54 55 55 55 58 58 58
61 62 63 64 61 63 67 67 67 67 66 67 68 68 67 65 64 64 63 62 60 57 55 58 58 56 55 58 58 58 56 55 54 53 53 53 53 54 54 55 55 55 53
63 63 61 62 60 64 66 67 67 66 67 68 68 67 66 65 65 64 63 61 59 57 55 56 56 55 55 59 58 57 56 54 52 52 53 53 52 53 53 54 53 53 53
64 64 66 62 62 62 62 63 67 66 67 68 68 66 65 65 64 63 62 61 59 57 54 53 54 54 54 58 57 55 54 53 51 51 52 52 52 52 52 53 52 52 51
61 63 64 63 63 62 60 62 66 66 67 67 67 65 65 65 64 63 62 61 60 58 56 53 53 53 53 56 56 54 53 52 50 50 51 52 52 52 52 52 52 51 51
60 61 62 62 61 60 59 62 64 63 66 67 66 65 65 64 63 62 62 61 59 57 55 52 49 49 49 51 55 54 53 51 50 50 50 51 52 51 51 51 51 50 50
58 59 59 59 60 59 59 59 60 59 62 65 65 65 64 63 63 62 61 60 59 56 53 49 45 45 45 51 56 54 53 51 49 50 50 51 51 51 50 50 50 49 48
57 57 59 59 59 58 58 59 58 59 59 64 64 63 62 62 61 59 60 60 58 56 52 46 47 42 40 49 54 53 51 50 50 51 52 52 51 50 49 48 48 48 48
55 56 57 57 57 57 57 57 57 58 60 61 61 60 60 59 59 59 60 59 57 55 50 45 45 44 40 38 43 49 49 50 51 51 52 52 50 49 48 47 47 46 47
55 55 56 57 57 55 55 54 57 59 60 59 58 59 59 59 59 58 57 57 55 51 47 42 42 43 37 36 39 45 48 50 50 52 54 52 50 49 48 46 46 46 44
55 55 56 56 56 55 54 54 57 58 59 58 58 58 58 57 55 54 53 50 47 45 42 43 43 39 37 36 35 40 44 46 48 51 54 53 51 50 49 47 45 44 43
54 56 56 56 54 55 55 54 56 59 57 56 58 57 56 54 53 52 50 46 44 42 45 45 40 38 37 35 34 34 35 38 43 47 51 53 52 50 49 48 47 46 43
55 56 57 56 55 55 56 58 58 57 57 56 58 57 55 53 52 50 48 46 45 43 48 43 41 38 37 35 34 34 37 39 38 41 48 51 52 52 50 48 45 42 43
55 56 56 57 57 57 57 58 57 55 57 56 57 57 55 53 52 52 49 49 48 47 49 44 43 40 38 36 34 33 37 42 41 41 44 49 51 49 48 45 44 44 42
55 56 56 57 57 56 55 56 56 56 57 56 57 57 56 53 53 53 50 50 50 51 49 46 44 42 39 37 35 35 33 36 42 42 44 47 49 48 48 47 45 43 37
55 55 56 56 55 54 53 54 55 55 56 56 57 57 56 54 55 54 52 52 52 51 50 47 45 43 40 39 36 35 35 34 33 39 43 46 46 46 47 48 46 41 37
54 55 56 54 54 54 54 53 53 53 54 55 56 57 56 57 56 54 53 53 52 51 49 46 44 45 42 40 37 36 36 35 33 34 41 44 45 45 45 45 44 39 39
53 54 54 53 54 54 51 51 51 51 53 53 55 55 56 57 56 55 54 54 52 50 48 46 45 44 45 42 39 39 39 39 36 36 35 39 40 37 42 41 41 36 40
53 53 52 53 53 54 52 49 51 51 52 53 54 55 56 56 57 56 55 54 51 50 49 48 47 46 46 44 39 40 38 40 41 39 37 35 35 35 38 38 37 35 36
52 52 50 52 52 52 53 49 51 52 51 52 51 53 56 56 56 56 56 55 53 51 50 49 48 46 45 46 44 42 40 39 39 40 39 39 38 37 36 36 36 35 35
50 50 49 49 48 51 53 49 50 47 49 49 51 51 54 57 57 57 57 56 54 53 51 51 49 48 47 46 47 43 43 42 39 37 37 38 40 39 38 36 36 36 35
48 47 46 47 48 50 53 50 51 51 52 51 51 50 52 57 58 58 58 57 56 55 53 53 53 50 49 48 47 44 43 44 44 41 40 38 37 37 37 37 36 36 36
44 45 46 46 48 50 53 52 51 50 50 50 51 50 52 57 58 59 59 58 58 56 54 54 53 52 51 50 47 45 45 44 43 43 41 40 36 32 32 32 35 37 37

GFSSE_sfc_30mbdewp_075.txt.gz
Dewpoint
68 70 70 70 69 69 69 69 69 68 67 67 68 68 68 68 68 67 66 65 64 63 62 61 62 60 60 60 60 61 61 60 60 57 58 59 60 59 60 59 59 57 60
67 69 70 70 69 69 68 68 68 68 67 67 67 67 68 67 67 66 64 63 63 63 61 61 61 60 60 60 61 60 60 60 60 59 58 57 59 58 60 62 61 60 60
67 69 69 69 69 68 68 68 68 68 68 68 67 67 67 66 66 65 64 63 63 62 61 61 61 62 61 61 59 59 59 58 58 57 57 56 55 57 60 59 60 59 60
65 65 67 65 66 68 68 68 67 67 68 68 68 67 66 66 65 64 63 62 63 62 61 61 60 60 61 61 59 58 58 57 56 55 54 54 55 56 58 58 56 57 57
63 63 65 63 62 63 64 64 66 66 67 68 67 67 66 65 64 63 61 61 62 62 60 58 57 59 61 60 58 56 56 55 55 54 53 53 54 55 55 54 52 54 52
62 62 64 64 63 65 65 65 63 64 65 67 67 66 65 65 64 63 61 60 61 61 58 55 56 59 60 59 58 56 55 55 54 53 53 54 53 54 53 53 52 52 52
63 64 61 63 63 62 62 62 64 64 66 67 67 66 65 64 63 62 60 60 61 60 55 55 59 61 59 58 56 55 55 54 52 52 52 52 53 53 53 52 52 52 51
62 64 62 62 62 62 61 61 62 64 63 66 66 65 65 64 63 62 60 59 58 58 56 56 60 59 58 56 55 55 55 53 51 52 52 52 52 52 52 52 51 51 50
61 62 62 63 62 62 62 62 61 63 64 66 65 65 64 64 63 62 61 59 58 55 54 53 57 59 57 56 55 55 54 52 51 51 52 52 52 52 52 51 50 50 50
59 59 60 61 61 60 61 64 64 64 63 63 63 65 64 63 62 61 60 58 55 52 52 52 53 56 57 56 54 54 54 52 50 51 51 52 51 51 51 50 50 49 49
57 58 59 59 59 59 60 61 62 63 63 63 61 64 62 62 61 59 59 57 54 52 52 50 52 57 58 56 55 54 51 50 51 51 52 53 51 51 50 50 49 48 47
55 57 58 58 58 58 58 58 59 61 62 61 59 61 60 59 59 59 58 56 53 51 51 51 47 51 53 54 54 52 50 50 51 52 53 52 50 50 49 48 48 48 46
55 56 57 57 57 57 56 56 57 60 60 60 60 60 58 59 60 58 57 54 50 46 42 43 39 37 42 46 48 49 50 51 51 52 54 52 50 49 49 48 47 46 44
55 55 57 57 56 55 55 55 58 59 60 59 59 58 58 57 56 55 53 50 44 41 42 41 39 37 37 44 46 48 49 50 51 53 54 53 51 49 48 47 46 44 43
54 55 56 56 55 54 55 56 57 59 59 59 59 57 56 54 53 52 49 45 42 42 44 40 38 37 35 39 41 45 46 48 50 52 54 53 52 50 49 48 47 45 43
55 56 56 55 55 54 55 56 56 58 57 59 58 56 55 53 52 49 46 43 42 45 45 40 38 36 35 34 35 37 39 44 47 49 52 54 53 52 50 48 47 46 43
55 56 56 54 55 55 54 55 57 57 56 56 57 55 54 52 51 48 46 44 44 47 44 42 39 38 36 35 34 37 37 37 38 45 49 51 53 53 52 49 46 43 43
55 56 56 56 55 56 55 56 57 57 56 56 56 55 53 52 51 49 47 46 47 48 45 43 41 39 36 35 34 34 39 41 38 39 44 49 50 50 50 47 46 44 40
55 56 56 56 55 57 57 56 57 57 56 57 56 55 53 52 53 50 48 49 50 49 47 45 43 41 38 37 35 35 35 39 41 41 41 45 48 48 48 49 47 45 38
55 56 56 56 56 56 55 55 55 55 56 57 56 56 55 53 53 52 51 51 51 50 49 47 44 43 41 38 36 35 36 36 35 39 41 44 47 47 47 47 48 44 40
55 55 56 55 55 54 54 53 53 53 54 56 56 56 56 54 54 54 53 52 52 50 49 48 45 44 43 42 38 38 38 38 36 35 37 42 44 45 46 45 45 41 41
53 54 55 54 54 53 52 53 53 52 53 54 55 56 56 57 55 55 54 53 52 50 49 47 46 45 44 43 39 40 36 39 40 40 37 36 41 41 43 43 42 40 35
53 53 54 53 53 54 51 50 51 51 52 52 53 54 55 56 56 56 55 53 52 51 49 48 46 46 45 45 44 40 39 38 40 41 40 38 36 37 36 38 39 38 36
52 53 52 53 53 54 52 49 50 50 49 51 51 52 54 56 55 56 56 55 53 52 50 49 48 47 47 46 46 45 45 44 41 39 38 40 40 39 37 37 37 37 36
52 52 51 51 52 52 52 50 49 48 48 49 51 51 51 54 56 56 56 55 54 53 52 51 50 49 49 48 46 44 44 44 43 42 40 39 40 39 39 39 38 37 37
51 51 50 49 49 49 50 52 49 50 50 50 50 49 51 52 55 56 56 56 56 55 53 52 52 51 50 49 48 45 44 44 44 43 42 42 40 39 34 34 35 37 37

GFSSE_sfc_30mbdewp_078.txt.gz
Dewpoint
66 69 70 70 70 69 69 69 70 69 69 69 69 68 68 68 68 68 67 67 66 64 62 61 61 60 60 61 60 60 61 60 60 61 59 59 58 57 57 58 60 61 61
66 69 70 69 69 69 69 68 69 69 69 69 68 68 68 68 67 67 65 65 64 63 61 61 60 60 60 61 61 60 60 60 60 61 60 59 60 61 61 61 61 60 59
68 68 68 68 68 68 66 67 68 69 69 68 68 68 68 67 66 65 65 64 64 62 61 60 60 60 60 61 60 60 59 59 59 58 56 57 60 60 60 60 59 57 57
66 68 67 67 66 66 64 64 65 68 68 68 68 68 67 66 65 65 64 64 63 62 60 59 61 59 59 60 59 59 58 58 57 56 55 57 58 58 57 57 55 56 54
64 65 65 65 63 64 64 64 64 67 67 68 67 67 67 66 65 64 64 64 63 63 63 62 62 61 59 60 59 58 57 56 56 54 54 55 56 55 55 54 52 52 52
63 64 65 64 63 62 62 62 63 64 66 67 67 66 66 65 64 64 64 63 63 61 60 61 62 60 59 58 57 56 56 56 54 53 54 55 54 53 53 53 52 52 52
62 63 65 63 62 62 63 62 62 63 65 65 66 65 65 64 63 63 63 63 61 59 58 61 60 59 58 57 56 56 55 55 52 52 53 53 54 53 53 52 52 51 51
62 63 64 64 64 63 64 65 64 63 64 65 66 65 65 64 62 62 63 61 59 59 61 61 60 58 57 56 56 56 55 54 52 52 52 53 53 53 52 52 51 51 50
61 63 62 63 63 62 62 63 64 63 63 65 65 65 64 63 62 62 62 60 58 61 62 61 59 58 57 56 56 56 55 53 52 52 52 53 53 52 51 51 50 50 50
59 60 62 62 61 61 62 62 61 63 62 63 64 64 64 63 62 60 59 58 57 60 61 59 58 57 57 56 56 55 55 53 51 51 52 53 53 52 51 51 50 50 49
58 59 60 60 59 59 61 64 63 64 62 63 62 63 62 61 60 58 56 56 55 56 59 60 58 57 56 56 56 55 52 51 52 52 53 53 52 52 51 50 49 49 48
56 57 58 59 58 59 59 62 63 62 62 62 61 61 61 60 57 57 55 55 54 55 57 59 59 57 55 55 54 52 51 51 52 52 53 53 51 51 51 50 48 48 47
56 57 58 58 58 57 57 60 61 60 61 61 59 60 58 58 58 57 54 52 52 51 53 56 56 51 53 52 50 50 51 51 52 53 54 53 51 50 50 50 47 46 46
55 56 57 57 57 56 56 58 60 60 59 59 60 58 58 57 55 54 51 47 44 43 41 42 43 46 48 48 49 50 50 51 52 53 54 53 51 50 50 48 46 45 44
55 55 56 56 55 55 55 58 59 59 59 59 59 57 56 54 53 50 46 42 42 43 40 38 39 44 46 47 48 49 49 50 52 53 53 53 52 50 49 48 46 45 44
55 55 56 55 55 55 56 57 58 59 59 59 58 56 54 52 51 48 43 41 43 43 40 38 36 40 43 44 45 47 48 49 51 52 53 53 53 52 50 49 48 46 44
55 56 55 55 55 55 56 56 58 58 59 59 57 55 54 52 49 46 43 42 44 44 41 38 37 36 37 38 41 42 43 46 49 50 52 53 53 53 52 50 47 46 45
56 56 55 55 55 55 55 55 57 57 58 58 56 54 53 51 49 46 43 43 46 46 42 39 38 36 36 35 35 37 37 39 42 47 50 51 52 53 52 51 49 45 44
56 56 56 55 55 56 55 57 58 58 57 57 57 54 52 51 50 47 45 45 47 47 44 42 41 38 36 35 34 36 39 41 39 39 44 48 50 50 51 51 48 47 43
56 56 56 56 56 57 57 57 58 58 57 57 56 54 53 52 51 48 48 48 49 49 46 45 42 42 39 37 35 34 35 36 38 41 40 42 47 49 48 48 49 48 44
55 56 56 55 56 56 56 56 56 55 56 57 56 55 53 52 52 50 49 50 50 49 48 46 45 42 42 40 37 37 38 37 36 35 38 42 44 47 47 47 48 46 44
54 55 55 55 55 55 54 56 56 54 55 56 56 56 54 53 52 52 51 50 51 50 49 48 46 44 43 41 38 38 36 37 40 38 36 35 40 44 46 46 45 45 42
53 54 55 54 55 54 54 55 54 54 54 54 55 55 55 55 53 53 53 52 52 51 50 48 47 45 44 44 42 40 39 38 40 41 41 39 37 40 42 43 44 43 42
52 52 54 54 54 54 53 53 52 52 52 53 53 54 55 56 56 54 54 54 53 52 50 49 48 47 46 44 45 46 45 44 41 40 39 40 40 37 38 39 38 39 39
52 53 53 53 53 54 52 51 51 51 50 51 52 53 54 55 56 56 55 55 54 52 51 50 49 47 47 47 45 44 44 45 44 42 41 41 40 41 41 39 39 38 38
52 52 52 53 52 53 52 50 50 49 49 49 50 51 52 52 54 55 55 55 55 54 53 52 51 49 49 48 47 45 45 45 44 43 42 43 42 42 38 38 38 38 38

GFSSE_sfc_30mbdewp_084.txt.gz
Dewpoint
64 63 70 70 70 70 71 70 69 69 70 70 70 69 68 68 69 69 68 67 67 66 64 64 64 62 63 63 62 63 63 63 62 63 63 63 63 62 61 62 61 61 62
66 64 69 69 69 69 70 70 69 69 70 70 69 68 68 68 69 68 67 67 66 65 63 63 63 62 62 62 62 64 63 62 61 61 61 62 62 60 59 60 60 60 60
67 66 67 69 69 69 70 70 70 70 70 69 69 68 68 68 68 68 67 67 66 64 63 63 62 59 60 61 62 62 62 63 63 62 60 57 59 58 57 59 59 59 59
65 68 67 69 69 69 70 69 69 70 69 69 68 68 69 68 68 67 66 65 64 63 61 63 62 61 61 61 61 60 60 61 61 59 56 56 56 57 56 57 56 57 56
64 67 67 69 69 69 70 69 67 66 69 68 68 68 68 68 67 66 65 64 63 62 62 62 62 61 61 61 61 60 59 58 58 55 52 53 53 55 55 55 54 54 55
62 66 68 68 68 68 67 66 64 67 66 66 66 66 68 67 67 66 65 64 63 62 61 60 61 62 61 61 60 59 58 56 55 50 53 54 52 54 55 55 54 54 54
62 66 67 66 67 67 65 65 64 66 65 63 65 66 66 67 66 65 64 63 63 62 61 60 60 60 60 60 59 58 56 55 48 48 49 51 53 54 54 53 53 53 53
62 65 65 65 65 65 65 64 64 64 65 65 63 66 66 66 66 65 64 63 64 63 62 61 60 59 59 59 58 57 55 51 47 47 49 51 54 54 53 52 52 52 52
63 64 65 65 64 63 65 64 65 66 66 66 65 65 65 66 65 65 65 64 64 63 61 60 60 59 58 57 57 56 54 53 47 48 48 51 53 53 53 52 52 52 52
62 63 64 64 64 63 64 64 62 64 64 64 65 65 64 64 64 64 63 64 64 62 61 60 59 59 58 58 57 56 55 52 48 48 48 51 53 52 52 52 52 52 51
60 62 63 63 63 62 63 64 64 62 64 63 62 63 63 62 62 61 61 64 63 62 60 60 59 58 58 57 57 55 53 47 48 47 49 55 53 52 52 52 51 51 51
59 59 61 61 61 62 62 63 63 65 63 63 63 63 62 62 61 59 62 63 62 60 60 59 59 58 53 50 52 53 46 48 47 48 50 55 53 52 52 51 51 50 49
58 59 59 60 60 60 61 62 62 63 63 63 63 62 62 62 60 60 61 61 60 57 53 55 55 49 47 46 47 45 48 48 47 48 53 54 53 52 52 51 50 49 49
57 58 59 59 59 59 60 62 62 62 63 63 61 62 60 59 57 58 58 58 57 53 52 51 49 49 48 46 46 47 48 46 47 48 53 54 54 52 51 50 49 48 47
55 57 58 58 58 58 59 61 61 63 62 62 60 60 59 57 55 55 57 58 56 54 53 51 51 50 48 46 46 47 47 46 48 47 50 54 54 52 51 49 47 46 45
55 57 57 57 57 58 59 60 59 61 61 59 59 58 58 57 53 51 52 53 55 56 54 51 50 48 44 44 45 46 47 47 47 48 48 51 53 53 51 49 47 46 45
55 57 57 57 57 57 59 59 59 60 59 58 58 56 55 53 51 48 47 48 50 52 52 50 50 46 44 42 43 45 46 47 47 48 48 49 51 52 51 50 48 47 46
55 56 57 56 56 57 58 59 58 59 58 57 56 55 51 51 48 45 45 47 46 48 49 49 46 45 43 41 42 43 44 46 48 48 48 48 48 48 51 53 51 49 48
54 56 56 56 56 57 59 58 58 58 58 57 55 52 49 48 46 45 45 46 44 44 43 43 42 42 41 40 41 41 42 44 47 46 47 49 49 49 48 52 53 52 50
54 56 56 55 55 56 59 58 58 57 57 57 53 50 47 45 46 45 45 46 42 40 42 40 41 41 39 37 33 36 39 41 42 45 46 47 48 49 49 48 50 48 50
54 56 56 55 56 56 57 56 56 55 55 56 54 53 51 44 45 45 46 46 43 43 44 46 44 42 40 40 36 37 39 41 41 40 41 43 45 47 48 49 49 47 48
54 55 56 55 55 56 56 57 56 56 56 55 54 53 52 51 46 45 46 48 47 48 49 48 47 45 43 42 42 44 42 41 40 41 40 40 41 41 45 51 51 50 48
54 54 56 55 55 56 57 57 57 56 57 56 54 53 52 52 48 46 48 49 51 50 50 50 49 47 45 45 44 45 45 44 45 43 42 40 41 43 41 43 48 48 48
54 54 55 56 55 55 56 56 55 53 52 54 54 54 54 53 51 47 49 50 51 50 49 51 50 49 48 47 46 46 48 49 45 46 45 44 43 41 42 42 42 44 47
53 53 55 56 55 55 56 56 55 54 52 54 52 51 52 54 53 50 50 51 51 50 51 51 51 52 50 50 49 48 48 48 48 47 46 47 47 47 47 44 43 44 46
53 52 54 55 55 55 55 56 55 54 54 53 52 50 47 49 50 53 51 51 52 51 52 53 54 53 53 52 52 51 50 48 48 48 48 48 50 49 47 46 46 45 43

GFSSE_sfc_30mbdewp_087.txt.gz
Dewpoint
61 66 68 69 70 71 71 70 70 70 70 70 70 69 68 69 69 68 68 67 67 66 64 64 65 65 64 64 63 65 65 65 65 65 64 63 63 62 63 63 62 63 64
64 64 69 69 70 71 71 70 70 70 70 70 69 68 69 69 69 68 68 67 67 66 64 64 64 64 63 63 64 64 63 64 64 64 64 62 62 62 61 62 62 61 62
65 65 67 68 68 70 71 70 70 69 70 70 69 69 69 69 69 68 68 67 66 65 64 63 63 63 63 63 63 64 63 63 63 63 61 58 60 61 61 60 61 60 60
66 68 66 68 69 69 70 69 69 69 70 70 69 68 69 69 68 68 67 66 66 65 63 62 61 62 63 63 63 64 63 63 61 58 56 56 57 59 59 58 58 59 58
64 66 68 68 69 69 68 68 68 68 68 68 68 68 69 69 68 67 67 66 65 64 63 62 61 62 62 62 62 62 62 62 59 55 52 53 54 56 56 56 56 56 56
60 65 67 68 69 69 68 65 65 65 65 67 68 68 68 67 67 66 65 65 64 64 63 62 62 62 62 62 61 60 59 59 59 51 51 53 53 57 56 56 55 55 55
61 64 67 67 68 69 69 65 65 62 65 63 62 65 65 66 66 66 65 64 64 64 63 62 62 61 61 61 59 57 56 56 48 49 49 51 54 55 55 55 55 54 54
61 63 66 66 66 66 66 65 64 65 63 62 63 64 63 65 65 65 64 64 63 62 62 62 62 61 60 60 58 56 53 54 47 48 49 52 55 54 54 54 54 53 53
62 62 64 67 65 64 65 64 64 64 64 64 63 62 60 63 65 63 64 63 63 62 62 61 61 61 60 59 56 53 53 52 46 48 49 52 54 54 53 53 53 53 53
61 62 63 65 66 64 64 63 63 63 63 61 63 61 63 64 64 63 64 64 63 62 61 60 60 60 59 57 55 53 52 51 47 47 48 53 53 53 53 53 53 52 52
60 60 63 63 64 64 64 63 63 62 63 61 63 63 60 64 62 62 62 63 62 61 60 60 59 59 58 57 54 53 52 46 46 46 50 55 53 53 53 53 52 52 51
57 59 61 63 63 63 62 62 63 62 62 62 63 63 64 64 63 61 64 63 61 61 60 60 59 57 52 50 51 53 50 47 46 47 51 55 53 53 52 52 52 51 51
56 58 60 62 62 62 62 63 62 63 63 63 63 63 63 63 62 62 63 61 60 58 55 54 53 47 45 46 48 48 48 47 46 48 53 54 53 53 52 51 51 50 50
57 57 59 60 60 61 61 62 62 63 64 63 63 62 63 62 62 62 61 59 55 54 52 50 48 48 46 45 46 47 47 46 46 49 53 54 54 52 52 51 50 50 49
54 57 58 60 59 60 60 62 62 62 63 63 63 62 63 61 61 60 59 56 53 53 52 49 49 48 46 46 46 47 47 46 47 48 51 54 53 52 51 51 50 48 48
52 57 57 58 59 59 59 60 62 61 63 62 62 62 61 60 60 58 58 55 54 53 53 51 50 47 45 45 47 47 46 47 46 48 50 53 53 53 52 50 48 47 46
52 56 57 58 58 57 60 60 60 62 61 60 59 59 58 58 57 58 57 55 55 55 54 53 50 45 43 43 45 46 46 46 47 47 48 50 52 53 52 51 49 47 46
52 55 56 57 57 58 59 59 59 59 59 58 58 57 57 55 55 55 55 56 56 56 53 52 49 45 44 42 44 45 45 46 47 48 47 49 49 49 52 52 51 49 48
52 55 56 56 56 58 59 59 58 57 57 56 56 56 55 54 54 52 52 51 53 52 52 51 49 47 44 42 42 43 44 45 47 47 47 48 49 48 49 51 52 51 50
52 55 56 56 56 58 58 58 56 56 56 55 54 54 54 53 52 50 49 51 49 48 49 47 46 46 44 41 38 40 42 43 45 45 46 48 48 49 49 50 51 50 53
53 55 56 56 56 58 57 56 55 54 54 54 53 54 54 52 49 48 47 47 44 43 43 46 46 45 42 41 36 38 40 42 42 44 46 46 46 48 49 48 51 49 51
53 54 55 56 56 57 57 56 55 54 53 53 52 51 48 48 47 47 47 46 46 45 46 47 47 44 41 43 40 41 41 41 42 43 42 43 46 46 47 49 49 50 50
53 53 54 55 55 57 58 57 55 54 55 54 53 50 48 46 45 47 51 48 50 50 51 51 50 47 45 45 46 46 46 45 46 44 45 43 45 45 45 45 48 49 50
54 53 55 55 55 56 58 56 54 51 51 51 50 47 52 51 48 47 50 51 52 51 52 52 51 51 49 47 47 47 48 49 47 46 46 46 46 45 46 45 44 47 48
54 53 55 55 55 55 56 56 55 52 51 50 50 49 50 53 53 50 49 52 52 52 53 53 52 52 50 49 48 48 48 48 50 48 44 48 47 46 45 45 46 45 45
53 53 55 55 55 55 56 56 55 54 51 52 51 51 52 53 53 52 50 51 51 53 52 53 53 53 53 52 51 51 49 47 46 47 47 48 49 50 49 51 51 50 48

GFSSE_sfc_30mbdewp_090.txt.gz
Dewpoint
62 66 68 68 70 71 70 69 69 69 69 70 69 69 70 69 68 67 67 67 66 66 64 64 66 66 65 66 66 66 66 66 65 65 65 64 64 64 64 64 64 64 64
65 67 69 69 70 71 70 69 69 69 69 70 69 69 70 69 68 68 68 68 67 65 65 66 65 64 64 64 66 66 66 65 65 64 64 64 63 63 63 63 63 63 62
64 68 67 68 69 71 71 70 69 69 70 70 69 69 69 69 68 68 68 67 66 66 65 65 64 64 63 64 65 65 65 65 64 62 61 61 62 61 62 62 62 61 61
65 68 68 67 68 70 71 70 70 69 70 70 69 69 70 69 68 68 68 67 66 65 64 64 64 64 64 65 64 64 64 62 60 59 58 59 60 61 61 61 60 59 58
64 66 68 67 67 68 70 70 70 69 68 69 69 69 69 69 68 68 67 66 66 65 63 63 63 63 64 64 64 63 62 61 57 54 55 57 57 59 58 58 57 57 57
61 65 68 68 68 69 68 69 69 68 66 65 63 60 68 68 68 67 66 66 65 64 62 63 63 62 63 63 62 63 62 61 59 52 53 56 56 58 58 57 56 56 57
61 65 67 68 68 69 68 67 68 67 66 65 63 60 62 66 66 66 66 65 65 64 63 62 63 62 61 61 61 60 58 57 54 52 54 56 57 57 56 55 56 54 55
61 64 66 67 67 68 68 67 66 64 65 62 61 60 61 64 64 64 64 65 65 65 64 63 62 61 60 60 58 55 54 54 52 51 53 54 56 55 55 55 54 54 54
62 62 65 66 66 65 67 66 64 64 63 62 60 60 61 64 64 65 63 65 65 64 63 62 62 61 59 58 55 54 51 52 49 52 53 53 55 54 54 54 54 53 53
61 62 63 65 66 65 65 65 64 65 63 60 62 61 61 64 62 64 63 64 64 63 63 62 61 60 59 57 54 50 50 52 50 51 54 55 54 53 53 54 53 53 52
60 60 61 62 66 65 65 63 64 64 63 64 63 63 63 62 62 63 63 62 63 62 61 61 61 59 57 54 51 51 53 48 49 53 54 55 53 52 52 53 53 52 52
58 59 60 62 63 64 64 63 63 63 64 63 63 63 62 63 63 63 62 62 62 61 61 60 59 57 54 52 52 52 51 49 51 53 54 54 54 53 53 52 52 52 52
57 57 59 60 61 63 63 63 63 63 62 63 63 63 61 63 63 62 62 61 61 60 59 59 56 52 50 49 51 51 52 50 51 52 54 55 53 53 53 52 52 52 51
57 57 58 60 60 61 62 63 62 62 62 63 63 63 61 63 62 63 61 59 58 56 56 54 51 49 49 49 51 53 49 50 52 53 55 54 54 53 52 52 51 51 51
56 57 58 59 59 60 61 62 61 62 63 62 63 63 62 62 62 62 60 56 54 53 51 49 51 48 49 47 50 49 49 51 52 53 55 55 54 53 52 52 51 50 50
56 57 58 59 60 59 60 60 62 62 63 64 62 62 62 62 62 61 59 53 53 53 49 50 49 50 48 48 49 49 49 51 51 53 54 55 54 54 52 51 51 50 49
51 57 58 58 58 59 59 60 60 61 63 63 63 62 62 61 61 61 58 53 53 54 51 54 51 49 49 48 49 49 49 50 51 52 53 53 54 53 53 52 50 48 47
52 57 57 57 56 58 60 60 60 61 62 60 60 62 61 61 60 59 57 57 55 55 55 53 50 48 47 48 48 48 47 49 51 51 52 53 53 52 53 53 51 49 47
52 56 57 56 56 58 59 59 59 58 59 59 58 59 59 59 59 58 58 57 57 56 54 51 49 48 46 46 47 47 48 49 49 50 50 50 52 51 52 53 53 52 50
53 57 56 56 57 59 58 57 57 56 56 57 57 56 56 55 55 55 56 55 54 54 53 51 49 50 46 44 43 44 48 49 48 49 50 51 51 51 51 51 52 51 52
56 56 55 55 57 58 56 55 54 53 54 55 55 54 54 54 53 53 54 53 50 50 50 49 50 48 44 47 44 45 45 47 49 49 48 49 50 51 52 51 51 50 51
55 56 56 56 57 57 56 55 54 53 52 53 54 54 52 53 53 53 53 50 48 47 47 48 48 46 45 45 42 42 41 42 44 46 48 49 49 49 50 52 51 51 50
55 55 56 55 56 57 56 55 54 53 52 51 52 53 52 53 54 53 51 48 49 48 47 49 49 45 43 43 46 45 45 45 44 45 45 46 45 49 49 50 51 52 52
54 55 55 55 56 57 56 54 52 50 49 50 49 49 49 51 50 50 49 50 48 48 50 51 52 49 48 45 46 49 51 51 49 47 46 46 47 47 46 47 49 51 51
54 55 55 55 56 57 55 54 51 50 50 52 51 49 47 48 49 49 51 51 53 52 53 53 52 53 52 51 49 48 48 49 50 50 48 47 47 47 48 49 47 48 49
54 54 55 55 55 57 56 54 52 50 51 51 49 48 49 48 50 49 51 52 53 52 53 54 54 54 53 52 52 52 50 50 49 49 48 48 49 49 48 48 48 48 48

GFSSE_sfc_30mbdewp_096.txt.gz
Dewpoint
66 70 70 70 70 69 70 70 70 70 70 70 70 70 70 70 70 70 69 69 69 69 68 67 68 68 68 68 68 68 67 67 66 66 66 65 64 64 65 65 65 64 65
66 69 71 70 70 69 69 69 70 70 70 70 70 70 70 70 70 69 69 69 68 68 66 67 67 67 67 67 68 67 67 66 66 66 66 65 64 64 64 64 65 64 64
66 68 70 70 70 69 69 68 68 70 70 70 70 69 69 69 69 68 68 68 68 67 66 66 67 67 66 67 67 67 66 66 65 65 65 64 64 64 64 64 64 63 63
67 68 68 70 70 70 69 69 68 69 69 70 70 69 69 69 69 68 67 67 67 67 65 66 66 66 66 66 66 65 65 64 63 63 62 63 63 63 63 62 62 61 61
66 67 67 69 71 70 69 69 69 70 70 70 68 67 66 67 68 68 67 67 67 67 65 65 66 66 66 65 65 64 63 62 62 61 62 62 62 62 61 60 60 59 59
68 66 67 68 70 71 70 69 69 70 69 65 65 64 63 65 65 65 67 67 67 66 65 65 66 66 66 64 64 63 62 59 58 59 60 61 61 60 59 58 58 59 58
67 67 66 66 68 70 71 70 70 70 67 64 64 64 63 63 61 62 64 65 66 66 66 65 66 66 65 64 63 60 59 58 57 58 59 60 60 59 58 56 56 55 56
67 67 67 67 68 68 70 70 70 69 66 64 64 64 63 62 62 61 60 65 64 65 65 65 65 64 65 63 60 59 58 57 57 57 58 59 60 59 57 56 55 55 54
67 67 67 68 67 68 68 68 69 69 65 65 64 64 64 63 62 60 62 65 64 65 64 65 64 64 62 60 57 58 57 56 55 56 58 59 58 56 56 55 54 56 54
64 65 65 64 64 64 67 67 68 67 65 65 65 64 62 62 62 61 64 63 64 64 64 64 64 62 59 56 57 57 56 55 54 56 57 58 58 56 55 53 54 55 54
61 63 64 64 63 64 65 66 66 65 64 63 63 62 61 61 63 62 63 65 63 63 63 63 62 61 57 56 58 57 54 53 54 55 56 57 56 55 54 54 53 53 53
59 61 62 64 63 64 65 65 64 64 63 62 62 62 61 62 62 64 64 64 62 62 63 62 61 59 55 55 56 55 53 53 53 53 54 55 53 54 53 54 53 53 53
59 60 60 62 64 64 63 63 63 64 62 62 62 61 61 62 63 63 63 63 62 62 61 60 59 55 51 51 52 53 53 53 53 53 55 55 55 54 54 54 54 53 54
58 59 60 61 62 63 63 63 63 63 63 62 62 62 61 61 62 62 63 63 62 60 59 57 55 53 50 51 52 53 53 53 53 53 54 55 55 53 54 53 53 53 53
58 59 59 59 60 61 63 62 63 62 63 62 62 62 61 61 61 62 61 61 59 58 56 54 52 51 50 51 52 52 52 53 53 54 53 55 55 54 53 54 53 53 53
58 59 58 58 59 60 61 62 62 62 62 62 62 61 62 62 61 61 60 59 58 56 54 52 50 49 49 50 51 52 52 53 53 54 54 55 55 55 54 53 53 53 52
58 58 58 58 58 59 59 60 61 62 62 62 62 61 62 62 61 59 58 57 55 53 51 51 48 48 48 50 51 52 52 53 53 54 54 54 55 54 54 54 53 53 52
57 57 58 59 58 58 58 59 60 60 62 62 62 61 62 62 61 58 57 55 52 50 50 49 48 48 48 50 51 52 52 53 53 54 54 54 54 54 54 54 54 53 52
57 58 58 58 58 58 59 59 59 60 61 62 62 61 61 62 60 58 55 52 49 48 50 49 48 48 48 49 50 51 52 52 53 53 53 53 53 53 54 55 54 54 53
57 57 56 56 58 59 59 59 59 59 60 61 62 62 61 62 60 58 55 51 46 50 52 49 48 49 49 48 49 50 51 52 52 52 52 52 53 52 53 53 53 52 52
56 56 56 56 57 57 57 56 55 56 56 58 59 61 61 61 60 57 56 53 45 51 51 50 48 48 48 48 48 49 50 52 51 52 52 52 52 52 52 52 52 52 52
55 55 55 56 56 56 56 56 55 55 55 56 57 58 61 61 60 57 55 54 48 52 50 49 48 48 47 47 46 46 46 47 49 51 52 51 51 51 51 51 51 51 51
55 55 55 56 56 56 56 55 54 54 53 53 54 55 57 60 59 58 55 54 52 51 49 48 47 46 46 47 46 45 42 43 45 47 50 51 51 51 51 51 51 51 51
54 55 55 56 56 55 55 54 53 52 51 52 52 53 55 58 59 58 56 54 53 51 49 48 47 46 45 44 46 49 48 46 43 42 46 49 50 51 51 51 51 51 50
54 54 55 56 55 55 54 53 52 52 51 52 51 52 53 55 56 56 55 54 51 50 49 49 48 46 46 46 45 48 49 50 51 47 42 44 46 48 50 51 51 51 51
54 54 55 55 54 55 54 53 52 51 51 51 51 51 52 54 54 54 53 53 51 50 49 49 50 48 47 45 46 47 47 48 48 49 48 46 43 45 47 48 49 51 52

GFSSE_sfc_30mbdewp_102.txt.gz
Dewpoint
66 69 70 69 70 70 70 70 71 71 72 71 71 71 71 71 71 70 70 70 69 69 69 69 69 69 68 68 68 68 66 66 67 67 66 66 65 66 66 66 66 66 66
67 69 70 70 70 70 70 69 70 71 71 71 71 71 71 71 70 70 70 70 69 69 68 68 69 68 68 68 68 66 65 66 66 66 66 65 65 65 65 66 66 66 66
67 69 70 70 70 70 70 69 69 71 71 71 71 71 70 70 70 70 69 69 69 69 68 67 68 68 67 68 67 67 67 66 66 65 65 63 64 64 65 65 66 65 65
68 68 69 70 70 70 70 70 70 70 71 71 71 70 70 70 70 70 70 68 68 68 68 67 67 68 68 67 67 67 67 67 66 65 63 63 63 64 64 64 64 64 64
68 68 69 70 70 70 70 70 70 70 70 70 70 70 70 70 70 69 69 67 66 66 67 66 67 67 68 67 67 67 66 65 64 63 63 63 62 63 63 63 63 63 63
67 69 69 69 69 70 69 70 70 70 69 69 70 70 70 70 70 69 68 66 65 65 66 66 66 67 67 66 66 65 64 64 63 63 63 63 63 62 62 61 62 61 61
66 67 69 69 69 70 69 69 70 70 69 69 69 69 69 69 68 67 66 66 66 65 66 66 67 67 66 65 64 64 63 62 62 62 61 61 61 61 60 60 59 60 60
65 65 67 69 69 70 69 69 69 69 69 68 69 69 69 69 68 67 67 66 66 65 66 66 66 66 65 64 63 62 62 61 60 60 60 60 61 60 59 58 59 58 58
65 65 66 68 69 70 69 69 69 68 67 66 67 68 68 67 67 68 67 66 65 64 66 66 65 65 64 62 61 61 61 60 59 59 60 60 60 59 57 57 56 57 57
65 65 65 66 67 69 69 69 68 67 66 66 65 65 64 64 64 65 65 64 65 65 65 64 65 64 63 61 61 60 60 59 59 59 59 60 59 57 57 56 56 55 53
65 65 65 65 66 66 67 68 68 67 66 65 65 65 64 63 63 63 63 64 64 62 63 62 63 62 61 60 60 59 57 57 58 58 59 60 58 56 57 53 56 56 55
64 64 64 65 64 64 65 65 67 67 66 65 65 64 64 63 63 63 62 62 63 61 61 62 61 61 60 59 58 56 56 56 57 58 58 58 58 56 56 57 55 54 55
62 63 63 63 62 62 64 65 65 65 66 65 64 64 62 62 62 63 62 63 63 61 61 62 60 58 58 57 56 54 54 55 56 56 58 57 57 55 56 56 55 56 56
59 61 62 62 61 62 63 63 64 63 64 63 63 62 61 61 61 62 62 62 62 61 60 61 57 56 57 56 54 53 53 54 54 55 57 58 58 57 55 55 56 53 54
57 59 61 62 61 61 62 61 62 62 62 62 62 61 60 60 60 62 62 61 62 62 61 57 55 55 54 54 53 53 53 53 54 55 56 55 56 57 56 55 55 53 55
56 57 59 61 62 62 62 61 61 62 62 61 61 61 60 60 61 61 62 61 61 61 60 55 54 53 53 53 53 53 53 53 53 54 55 56 55 57 55 54 54 54 54
56 57 58 59 61 61 62 61 61 61 62 62 61 61 60 60 61 62 61 61 60 60 58 54 53 53 53 53 52 53 53 53 53 54 55 56 56 55 55 55 54 54 53
55 57 58 59 60 61 61 60 60 60 61 61 61 61 60 61 61 61 60 60 60 59 57 53 52 52 52 52 52 52 53 53 53 54 55 55 55 55 55 55 55 55 54
54 57 58 59 59 60 59 60 60 60 60 60 61 60 60 61 60 60 61 59 60 57 56 53 52 52 51 51 51 52 53 53 53 54 54 54 54 55 55 55 55 55 54
54 57 58 58 58 58 58 58 59 60 60 60 60 60 61 61 60 59 58 57 57 56 55 54 51 52 52 51 51 52 52 53 53 53 53 54 54 54 54 55 55 55 55
56 57 57 57 57 57 57 57 58 58 58 59 60 61 61 61 59 58 56 55 55 54 53 52 52 52 52 52 51 51 51 52 52 53 53 53 53 53 53 54 54 54 54
56 56 57 57 57 57 57 58 57 57 56 58 60 61 61 61 59 58 56 55 55 54 52 51 51 51 51 51 49 49 48 49 51 52 52 52 52 53 53 53 53 53 52
55 56 56 56 57 57 57 56 55 55 55 56 57 58 60 61 59 58 56 55 53 54 52 50 50 50 50 51 50 48 47 46 48 50 51 52 52 52 52 52 52 52 52
55 56 55 56 56 56 55 54 53 53 53 54 55 56 58 60 60 58 56 54 53 51 50 49 49 49 50 49 50 48 48 49 47 45 48 51 51 51 51 51 52 52 52
55 54 55 56 56 55 55 54 53 53 52 53 54 55 56 57 59 58 57 55 51 51 50 48 49 49 50 49 48 49 48 49 47 45 45 47 50 51 51 51 51 51 51
55 55 55 55 54 54 54 53 53 52 52 52 52 53 54 55 57 59 58 55 52 52 51 47 50 50 50 49 48 48 46 46 47 46 44 45 47 48 51 51 52 52 52

GFSSE_sfc_30mbdewp_105.txt.gz
Dewpoint
66 67 69 68 68 70 70 71 71 71 71 71 71 71 71 71 71 71 71 70 70 69 69 69 69 69 68 68 68 68 68 68 67 67 67 67 66 66 67 67 66 65 67
66 68 69 68 68 70 69 70 71 72 71 71 71 71 71 71 71 71 70 70 69 69 68 69 70 69 69 68 67 67 68 67 67 67 67 66 66 66 66 66 65 66 66
67 68 69 69 69 70 69 70 71 72 71 71 71 71 71 71 70 70 70 70 69 69 68 69 69 69 68 68 67 67 67 67 67 67 65 64 64 65 66 66 67 66 66
67 68 69 69 70 70 69 70 71 72 72 71 71 71 71 71 70 70 70 70 69 69 68 68 68 68 68 68 67 67 67 67 66 63 60 63 63 65 65 65 65 65 65
66 67 68 70 70 70 70 69 71 71 71 71 71 71 71 70 70 69 69 68 69 68 68 67 67 68 67 67 66 67 67 66 64 61 60 62 61 64 64 64 65 64 64
67 67 68 70 70 70 70 70 70 71 71 71 71 71 71 70 70 69 68 68 67 67 67 68 68 68 68 66 66 66 65 64 63 61 61 62 62 64 64 63 64 64 64
67 68 68 69 69 69 70 70 70 70 70 70 70 70 70 70 70 68 66 65 65 65 67 68 68 67 67 66 66 65 64 63 61 61 62 61 62 62 62 62 61 62 62
66 68 69 69 69 69 69 69 70 69 69 70 70 70 70 70 69 67 66 66 64 65 67 68 68 66 66 65 64 64 63 63 62 61 61 61 62 61 61 60 61 60 59
66 67 69 69 69 69 69 68 69 69 69 69 69 68 68 68 67 67 65 64 66 65 65 67 67 66 65 64 63 63 62 62 61 60 60 60 62 61 60 58 58 58 58
65 66 66 69 69 69 69 68 68 67 68 68 68 68 67 67 66 65 65 66 65 65 64 65 66 65 64 63 62 61 61 61 60 60 59 60 61 59 58 58 57 57 57
65 65 66 66 68 69 69 69 68 68 67 66 67 66 66 66 65 65 65 65 64 63 66 66 65 64 63 62 61 61 60 60 60 59 59 60 59 58 58 57 56 56 57
64 65 65 66 66 68 68 68 68 68 67 66 66 66 66 65 65 64 64 63 63 63 64 64 64 63 62 62 61 59 59 59 59 59 59 60 59 57 55 56 55 53 56
63 65 64 65 66 66 66 67 68 68 67 66 66 65 64 64 64 63 63 63 64 64 62 62 63 62 61 60 58 58 58 59 58 58 58 59 58 58 57 56 56 55 56
62 63 63 65 65 65 65 65 65 66 66 66 65 65 64 63 63 63 63 63 62 62 61 62 62 60 59 58 57 57 57 57 57 56 57 58 59 58 57 56 57 56 56
60 62 63 64 65 64 64 64 65 65 64 64 65 64 64 63 62 63 62 62 62 62 62 61 59 59 58 56 56 56 56 56 56 55 54 57 58 58 57 56 55 54 55
58 59 62 63 64 63 63 62 63 63 63 63 63 64 64 64 63 62 62 62 62 63 62 58 58 57 57 55 55 55 55 55 55 55 55 57 58 57 57 56 55 55 55
57 57 59 61 63 62 62 61 62 63 63 62 61 62 62 62 61 61 61 62 62 60 60 58 57 57 56 55 54 54 54 54 54 54 54 54 56 56 57 57 55 56 55
55 56 57 59 62 62 62 61 61 62 62 62 62 62 61 61 61 61 61 61 61 58 57 57 56 55 55 54 53 53 53 53 54 54 54 54 56 54 55 55 55 55 54
51 54 56 58 60 61 62 61 61 62 61 62 62 61 61 61 60 60 61 61 60 58 56 56 56 55 54 53 53 53 53 53 53 54 54 54 54 53 53 55 55 55 54
37 52 56 59 59 61 61 60 61 60 61 61 61 61 61 61 60 60 61 60 60 58 55 55 55 55 54 53 52 52 52 53 53 53 53 53 53 54 54 53 54 54 55
44 53 57 58 59 60 59 58 59 59 60 60 61 61 60 61 61 61 60 59 59 57 55 54 54 53 54 53 52 52 52 53 53 53 53 53 54 54 55 55 54 53 54
49 54 57 57 58 59 59 60 59 59 59 59 60 60 60 61 60 59 58 57 57 57 55 54 54 53 53 53 50 50 49 51 52 53 53 53 53 53 54 54 54 54 53
52 55 56 57 57 59 59 59 58 57 57 57 58 59 60 61 60 59 57 56 55 54 54 54 54 53 52 52 52 49 48 47 49 52 53 52 53 53 53 53 53 53 53
50 55 56 56 57 58 58 57 56 55 54 55 56 57 60 61 59 59 57 56 55 55 54 54 55 54 53 51 52 50 52 50 47 47 50 52 53 52 53 52 52 53 53
50 54 55 56 56 57 57 56 55 54 54 54 55 55 58 60 60 58 57 55 55 55 54 54 54 54 54 53 51 49 50 51 50 47 44 48 51 51 51 52 52 52 52
53 55 55 55 55 56 56 55 54 54 54 53 53 53 56 56 58 59 56 55 55 54 54 54 54 54 54 53 52 49 49 48 47 46 45 47 48 50 51 52 52 52 52